Time,TemperatureF,DewpointF,PressureIn,WindDirection,WindDirectionDegrees,WindSpeedMPH,WindSpeedGustMPH,Humidity,HourlyPrecipIn,Conditions,Clouds,dailyrainin,SoftwareType,DateUTC
2013-02-26 00:00:00,35.5,24.5,30.06,ENE,65,6.0,9.0,64,0.00,,SCT250,0.00,VWS V14.01,2013-02-26 05:00:00,
2013-02-26 00:01:00,35.4,24.5,30.06,ENE,69,8.0,12.0,64,0.00,,RA,0.00,VWS V14.01,2013-02-26 05:01:00,
2013-02-26 00:02:00,35.4,24.5,30.06,East,82,7.0,12.0,64,0.00,,RA,0.00,VWS V14.01,2013-02-26 05:02:00,
2013-02-26 00:03:00,35.4,24.5,30.06,East,79,8.0,9.0,64,0.00,,RA,0.00,VWS V14.01,2013-02-26 05:03:00,
2013-02-26 00:04:00,35.4,24.5,30.06,East,80,4.0,10.0,64,0.00,,RA,0.00,VWS V14.01,2013-02-26 05:04:00,
2013-02-26 00:05:00,35.3,24.4,30.05,East,80,7.0,8.0,64,0.00,,BKN200,0.00,VWS V14.01,2013-02-26 05:05:00,
2013-02-26 00:06:00,35.3,24.4,30.05,ENE,69,6.0,8.0,64,0.00,,RA,0.00,VWS V14.01,2013-02-26 05:06:00,
2013-02-26 00:07:00,35.3,24.4,30.05,East,84,5.0,8.0,64,0.00,,RA,0.00,VWS V14.01,2013-02-26 05:07:00,
2013-02-26 00:08:00,35.3,24.7,30.05,ENE,78,5.0,9.0,65,0.00,,RA,0.00,VWS V14.01,2013-02-26 05:08:00,
2013-02-26 00:09:00,35.3,24.4,30.05,ENE,63,6.0,9.0,64,0.00,,RA,0.00,VWS V14.01,2013-02-26 05:09:00,
2013-02-26 00:10:00,35.3,24.4,30.05,ENE,76,8.0,9.0,64,0.00,,BKN200,0.00,VWS V14.01,2013-02-26 05:10:00,
2013-02-26 00:11:00,35.3,24.4,30.05,ENE,78,5.0,9.0,64,0.00,,RA,0.00,VWS V14.01,2013-02-26 05:11:00,
2013-02-26 00:12:00,35.3,24.4,30.05,ENE,65,6.0,8.0,64,0.00,,RA,0.00,VWS V14.01,2013-02-26 05:12:00,
2013-02-26 00:13:00,35.3,24.4,30.05,NE,56,6.0,9.0,64,0.00,,RA,0.00,VWS V14.01,2013-02-26 05:13:00,
2013-02-26 00:14:00,35.3,24.4,30.05,East,83,5.0,9.0,64,0.00,,RA,0.00,VWS V14.01,2013-02-26 05:14:00,
2013-02-26 00:15:00,35.2,24.3,30.05,ENE,69,5.0,10.0,64,0.00,,BKN200,0.00,VWS V14.01,2013-02-26 05:15:00,
2013-02-26 00:16:00,35.2,24.3,30.05,ENE,64,8.0,10.0,64,0.00,,RA,0.00,VWS V14.01,2013-02-26 05:16:00,
2013-02-26 00:17:00,35.3,24.4,30.04,NE,47,3.0,9.0,64,0.00,,RA,0.00,VWS V14.01,2013-02-26 05:17:00,
2013-02-26 00:18:00,35.2,24.6,30.04,ENE,72,6.0,9.0,65,0.00,,RA,0.00,VWS V14.01,2013-02-26 05:18:00,
2013-02-26 00:19:00,35.2,24.6,30.04,NE,49,6.0,9.0,65,0.00,,RA,0.00,VWS V14.01,2013-02-26 05:19:00,
2013-02-26 00:20:00,35.2,24.3,30.04,ENE,72,7.0,11.0,64,0.00,,BKN200,0.00,VWS V14.01,2013-02-26 05:20:00,
2013-02-26 00:21:00,35.2,24.6,30.04,East,95,5.0,11.0,65,0.00,,RA,0.00,VWS V14.01,2013-02-26 05:21:00,
2013-02-26 00:22:00,35.2,24.6,30.04,East,89,7.0,9.0,65,0.00,,RA,0.00,VWS V14.01,2013-02-26 05:22:00,
2013-02-26 00:23:00,35.2,24.6,30.04,ENE,60,5.0,9.0,65,0.00,,RA,0.00,VWS V14.01,2013-02-26 05:23:00,
2013-02-26 00:24:00,35.2,24.6,30.03,NE,46,7.0,10.0,65,0.00,,RA,0.00,VWS V14.01,2013-02-26 05:24:00,
2013-02-26 00:25:00,35.2,24.6,30.03,ENE,63,5.0,10.0,65,0.00,,BKN200,0.00,VWS V14.01,2013-02-26 05:25:00,
2013-02-26 00:26:00,35.1,24.5,30.03,East,84,6.0,10.0,65,0.00,,RA,0.00,VWS V14.01,2013-02-26 05:26:00,
2013-02-26 00:27:00,35.1,24.5,30.03,ENE,76,6.0,10.0,65,0.00,,RA,0.00,VWS V14.01,2013-02-26 05:27:00,
2013-02-26 00:28:00,35.1,24.5,30.03,ENE,59,9.0,9.0,65,0.00,,RA,0.00,VWS V14.01,2013-02-26 05:28:00,
2013-02-26 00:29:00,35.1,24.5,30.03,ENE,70,8.0,13.0,65,0.00,,RA,0.00,VWS V14.01,2013-02-26 05:29:00,
2013-02-26 00:30:00,35.1,24.5,30.04,ENE,63,5.0,9.0,65,0.00,,BKN200,0.00,VWS V14.01,2013-02-26 05:30:00,
2013-02-26 00:31:00,35.1,24.5,30.04,East,82,10.0,10.0,65,0.00,,RA,0.00,VWS V14.01,2013-02-26 05:31:00,
2013-02-26 00:32:00,35.1,24.5,30.04,East,82,3.0,10.0,65,0.00,,RA,0.00,VWS V14.01,2013-02-26 05:32:00,
2013-02-26 00:33:00,35.1,24.5,30.03,ENE,71,4.0,6.0,65,0.00,,RA,0.00,VWS V14.01,2013-02-26 05:33:00,
2013-02-26 00:34:00,35.1,24.5,30.03,East,89,4.0,8.0,65,0.00,,RA,0.00,VWS V14.01,2013-02-26 05:34:00,
2013-02-26 00:35:00,35.1,24.5,30.03,East,79,7.0,7.0,65,0.00,,BKN200,0.00,VWS V14.01,2013-02-26 05:35:00,
2013-02-26 00:36:00,35.1,24.5,30.03,ENE,67,6.0,8.0,65,0.00,,RA,0.00,VWS V14.01,2013-02-26 05:36:00,
2013-02-26 00:37:00,35.1,24.5,30.03,East,80,3.0,8.0,65,0.00,,RA,0.00,VWS V14.01,2013-02-26 05:37:00,
2013-02-26 00:38:00,35.1,24.5,30.03,ESE,111,4.0,6.0,65,0.00,,RA,0.00,VWS V14.01,2013-02-26 05:38:00,
2013-02-26 00:39:00,35.1,24.5,30.03,ENE,66,5.0,7.0,65,0.00,,RA,0.00,VWS V14.01,2013-02-26 05:39:00,
2013-02-26 00:40:00,35.1,24.5,30.03,ENE,60,6.0,7.0,65,0.00,,BKN200,0.00,VWS V14.01,2013-02-26 05:40:00,
2013-02-26 00:41:00,35.1,24.5,30.03,East,94,7.0,9.0,65,0.00,,RA,0.00,VWS V14.01,2013-02-26 05:41:00,
2013-02-26 00:42:00,35.1,24.5,30.04,ESE,105,6.0,7.0,65,0.00,,RA,0.00,VWS V14.01,2013-02-26 05:42:00,
2013-02-26 00:43:00,35.1,24.5,30.04,East,97,5.0,9.0,65,0.00,,RA,0.00,VWS V14.01,2013-02-26 05:43:00,
2013-02-26 00:44:00,35.2,24.6,30.04,East,98,5.0,9.0,65,0.00,,RA,0.00,VWS V14.01,2013-02-26 05:44:00,
2013-02-26 00:45:00,35.2,24.6,30.04,East,91,7.0,8.0,65,0.00,,BKN200,0.00,VWS V14.01,2013-02-26 05:45:00,
2013-02-26 00:46:00,35.2,24.3,30.04,East,81,6.0,9.0,64,0.00,,RA,0.00,VWS V14.01,2013-02-26 05:46:00,
2013-02-26 00:47:00,35.3,24.4,30.05,East,87,6.0,9.0,64,0.00,,RA,0.00,VWS V14.01,2013-02-26 05:47:00,
2013-02-26 00:48:00,35.3,24.4,30.05,ENE,66,4.0,6.0,64,0.00,,RA,0.00,VWS V14.01,2013-02-26 05:48:00,
2013-02-26 00:49:00,35.3,24.4,30.04,East,92,4.0,6.0,64,0.00,,RA,0.00,VWS V14.01,2013-02-26 05:49:00,
2013-02-26 00:50:00,35.3,24.4,30.04,East,89,4.0,7.0,64,0.00,,BKN200,0.00,VWS V14.01,2013-02-26 05:50:00,
2013-02-26 00:51:00,35.3,24.4,30.04,East,85,5.0,6.0,64,0.00,,RA,0.00,VWS V14.01,2013-02-26 05:51:00,
2013-02-26 00:52:00,35.3,24.4,30.04,NE,43,4.0,8.0,64,0.00,,RA,0.00,VWS V14.01,2013-02-26 05:52:00,
2013-02-26 00:53:00,35.2,24.3,30.04,East,87,6.0,9.0,64,0.00,,RA,0.00,VWS V14.01,2013-02-26 05:53:00,
2013-02-26 00:54:00,35.2,24.3,30.04,East,79,4.0,8.0,64,0.00,,RA,0.00,VWS V14.01,2013-02-26 05:54:00,
2013-02-26 00:55:00,35.2,24.3,30.04,ENE,65,4.0,8.0,64,0.00,,BKN200,0.00,VWS V14.01,2013-02-26 05:55:00,
2013-02-26 00:56:00,35.2,24.3,30.04,ENE,65,8.0,8.0,64,0.00,,RA,0.00,VWS V14.01,2013-02-26 05:56:00,
2013-02-26 00:57:00,35.2,24.3,30.04,ESE,105,12.0,12.0,64,0.00,,RA,0.00,VWS V14.01,2013-02-26 05:57:00,
2013-02-26 00:58:00,35.2,24.3,30.04,ESE,109,7.0,12.0,64,0.00,,RA,0.00,VWS V14.01,2013-02-26 05:58:00,
2013-02-26 00:59:00,35.2,24.3,30.04,ENE,75,8.0,11.0,64,0.00,,RA,0.00,VWS V14.01,2013-02-26 05:59:00,
2013-02-26 01:00:00,35.3,24.4,30.04,ENE,76,5.0,11.0,64,0.00,,BKN200,0.00,VWS V14.01,2013-02-26 06:00:00,
2013-02-26 01:01:00,35.3,24.4,30.04,East,83,7.0,11.0,64,0.00,,RA,0.00,VWS V14.01,2013-02-26 06:01:00,
2013-02-26 01:02:00,35.2,24.3,30.04,NE,48,5.0,11.0,64,0.00,,RA,0.00,VWS V14.01,2013-02-26 06:02:00,
2013-02-26 01:03:00,35.2,24.3,30.04,East,80,8.0,11.0,64,0.00,,RA,0.00,VWS V14.01,2013-02-26 06:03:00,
2013-02-26 01:04:00,35.2,24.3,30.04,ENE,72,7.0,10.0,64,0.00,,RA,0.00,VWS V14.01,2013-02-26 06:04:00,
2013-02-26 01:05:00,35.2,24.3,30.04,ESE,113,7.0,9.0,64,0.00,,OVC200,0.00,VWS V14.01,2013-02-26 06:05:00,
2013-02-26 01:06:00,35.2,24.3,30.04,East,97,8.0,11.0,64,0.00,,RA,0.00,VWS V14.01,2013-02-26 06:06:00,
2013-02-26 01:07:00,35.2,24.3,30.04,ENE,67,8.0,11.0,64,0.00,,RA,0.00,VWS V14.01,2013-02-26 06:07:00,
2013-02-26 01:08:00,35.2,24.3,30.04,ENE,65,8.0,10.0,64,0.00,,RA,0.00,VWS V14.01,2013-02-26 06:08:00,
2013-02-26 01:09:00,35.2,24.3,30.04,ESE,108,6.0,10.0,64,0.00,,RA,0.00,VWS V14.01,2013-02-26 06:09:00,
2013-02-26 01:10:00,35.2,24.3,30.03,East,89,5.0,9.0,64,0.00,,OVC200,0.00,VWS V14.01,2013-02-26 06:10:00,
2013-02-26 01:11:00,35.2,24.3,30.03,East,85,10.0,11.0,64,0.00,,RA,0.00,VWS V14.01,2013-02-26 06:11:00,
2013-02-26 01:12:00,35.1,24.2,30.03,ESE,108,6.0,11.0,64,0.00,,RA,0.00,VWS V14.01,2013-02-26 06:12:00,
2013-02-26 01:13:00,35.1,24.2,30.03,East,93,7.0,9.0,64,0.00,,RA,0.00,VWS V14.01,2013-02-26 06:13:00,
2013-02-26 01:14:00,35.1,24.2,30.03,ENE,77,12.0,14.0,64,0.00,,RA,0.00,VWS V14.01,2013-02-26 06:14:00,
2013-02-26 01:15:00,35.2,24.3,30.03,ENE,71,9.0,14.0,64,0.00,,OVC200,0.00,VWS V14.01,2013-02-26 06:15:00,
2013-02-26 01:16:00,35.2,24.3,30.03,ENE,62,5.0,13.0,64,0.00,,RA,0.00,VWS V14.01,2013-02-26 06:16:00,
2013-02-26 01:17:00,35.2,24.3,30.03,East,101,6.0,11.0,64,0.00,,RA,0.00,VWS V14.01,2013-02-26 06:17:00,
2013-02-26 01:18:00,35.1,24.2,30.03,ESE,106,7.0,12.0,64,0.00,,RA,0.00,VWS V14.01,2013-02-26 06:18:00,
2013-02-26 01:19:00,35.2,24.3,30.04,East,97,10.0,13.0,64,0.00,,RA,0.00,VWS V14.01,2013-02-26 06:19:00,
2013-02-26 01:20:00,35.2,24.3,30.04,East,79,7.0,10.0,64,0.00,,OVC200,0.00,VWS V14.01,2013-02-26 06:20:00,
2013-02-26 01:21:00,35.1,24.2,30.04,ENE,64,5.0,8.0,64,0.00,,RA,0.00,VWS V14.01,2013-02-26 06:21:00,
2013-02-26 01:22:00,35.1,24.2,30.04,ESE,103,8.0,9.0,64,0.00,,RA,0.00,VWS V14.01,2013-02-26 06:22:00,
2013-02-26 01:23:00,35.1,24.2,30.03,East,97,9.0,13.0,64,0.00,,RA,0.00,VWS V14.01,2013-02-26 06:23:00,
2013-02-26 01:24:00,35.1,24.2,30.03,East,96,10.0,12.0,64,0.00,,RA,0.00,VWS V14.01,2013-02-26 06:24:00,
2013-02-26 01:25:00,35.1,24.2,30.03,East,98,13.0,13.0,64,0.00,,OVC200,0.00,VWS V14.01,2013-02-26 06:25:00,
2013-02-26 01:26:00,35.0,24.1,30.03,East,96,9.0,13.0,64,0.00,,RA,0.00,VWS V14.01,2013-02-26 06:26:00,
2013-02-26 01:27:00,35.0,24.1,30.03,East,95,8.0,10.0,64,0.00,,RA,0.00,VWS V14.01,2013-02-26 06:27:00,
2013-02-26 01:28:00,34.9,24.0,30.03,ENE,62,8.0,10.0,64,0.00,,RA,0.00,VWS V14.01,2013-02-26 06:28:00,
2013-02-26 01:29:00,34.9,24.3,30.03,East,99,6.0,9.0,65,0.00,,RA,0.00,VWS V14.01,2013-02-26 06:29:00,
2013-02-26 01:30:00,34.9,24.3,30.03,East,96,5.0,9.0,65,0.00,,OVC200,0.00,VWS V14.01,2013-02-26 06:30:00,
2013-02-26 01:31:00,34.8,24.2,30.03,ENE,71,7.0,7.0,65,0.00,,RA,0.00,VWS V14.01,2013-02-26 06:31:00,
2013-02-26 01:32:00,34.8,24.2,30.03,ENE,75,9.0,11.0,65,0.00,,RA,0.00,VWS V14.01,2013-02-26 06:32:00,
2013-02-26 01:33:00,34.8,24.2,30.03,NE,55,5.0,11.0,65,0.00,,RA,0.00,VWS V14.01,2013-02-26 06:33:00,
2013-02-26 01:34:00,34.7,24.1,30.03,ENE,75,10.0,13.0,65,0.00,,RA,0.00,VWS V14.01,2013-02-26 06:34:00,
2013-02-26 01:35:00,34.7,24.1,30.03,East,91,7.0,13.0,65,0.00,,OVC200,0.00,VWS V14.01,2013-02-26 06:35:00,
2013-02-26 01:36:00,34.7,24.1,30.03,NE,34,5.0,11.0,65,0.00,,RA,0.00,VWS V14.01,2013-02-26 06:36:00,
2013-02-26 01:37:00,34.7,24.1,30.03,ENE,57,7.0,11.0,65,0.00,,RA,0.00,VWS V14.01,2013-02-26 06:37:00,
2013-02-26 01:38:00,34.7,24.1,30.02,ENE,58,7.0,11.0,65,0.00,,RA,0.00,VWS V14.01,2013-02-26 06:38:00,
2013-02-26 01:39:00,34.7,24.1,30.02,East,82,6.0,11.0,65,0.00,,RA,0.00,VWS V14.01,2013-02-26 06:39:00,
2013-02-26 01:40:00,34.6,24.1,30.02,ENE,68,5.0,12.0,65,0.00,,OVC200,0.00,VWS V14.01,2013-02-26 06:40:00,
2013-02-26 01:41:00,34.6,24.1,30.02,ESE,102,4.0,12.0,65,0.00,,RA,0.00,VWS V14.01,2013-02-26 06:41:00,
2013-02-26 01:42:00,34.6,24.4,30.02,East,82,5.0,10.0,66,0.00,,RA,0.00,VWS V14.01,2013-02-26 06:42:00,
2013-02-26 01:43:00,34.5,24.3,30.02,ENE,64,8.0,10.0,66,0.00,,RA,0.00,VWS V14.01,2013-02-26 06:43:00,
2013-02-26 01:44:00,34.5,24.3,30.02,East,79,11.0,11.0,66,0.00,,RA,0.00,VWS V14.01,2013-02-26 06:44:00,
2013-02-26 01:45:00,34.5,24.3,30.02,ESE,118,10.0,12.0,66,0.00,,OVC200,0.00,VWS V14.01,2013-02-26 06:45:00,
2013-02-26 01:46:00,34.5,24.3,30.02,ENE,66,10.0,12.0,66,0.00,,RA,0.00,VWS V14.01,2013-02-26 06:46:00,
2013-02-26 01:47:00,34.5,24.3,30.02,ENE,77,7.0,11.0,66,0.00,,RA,0.00,VWS V14.01,2013-02-26 06:47:00,
2013-02-26 01:48:00,34.5,24.3,30.02,East,79,6.0,10.0,66,0.00,,RA,0.00,VWS V14.01,2013-02-26 06:48:00,
2013-02-26 01:49:00,34.5,24.3,30.01,East,85,5.0,11.0,66,0.00,,RA,0.00,VWS V14.01,2013-02-26 06:49:00,
2013-02-26 01:50:00,34.5,24.3,30.01,ENE,72,8.0,12.0,66,0.00,,OVC200,0.00,VWS V14.01,2013-02-26 06:50:00,
2013-02-26 01:51:00,34.5,24.3,30.01,East,87,10.0,11.0,66,0.00,,RA,0.00,VWS V14.01,2013-02-26 06:51:00,
2013-02-26 01:52:00,34.5,24.3,30.01,ESE,111,6.0,10.0,66,0.00,,RA,0.00,VWS V14.01,2013-02-26 06:52:00,
2013-02-26 01:53:00,34.5,24.3,30.01,ESE,108,5.0,10.0,66,0.00,,RA,0.00,VWS V14.01,2013-02-26 06:53:00,
2013-02-26 01:54:00,34.5,24.3,30.01,East,84,8.0,9.0,66,0.00,,RA,0.00,VWS V14.01,2013-02-26 06:54:00,
2013-02-26 01:55:00,34.5,24.3,30.01,ENE,75,8.0,11.0,66,0.00,,OVC200,0.00,VWS V14.01,2013-02-26 06:55:00,
2013-02-26 01:56:00,34.5,24.3,30.01,ENE,62,6.0,11.0,66,0.00,,RA,0.00,VWS V14.01,2013-02-26 06:56:00,
2013-02-26 01:57:00,34.5,24.3,30.01,ENE,77,11.0,13.0,66,0.00,,RA,0.00,VWS V14.01,2013-02-26 06:57:00,
2013-02-26 01:58:00,34.5,24.3,30.01,East,89,6.0,13.0,66,0.00,,RA,0.00,VWS V14.01,2013-02-26 06:58:00,
2013-02-26 01:59:00,34.5,24.3,30.01,ENE,65,11.0,12.0,66,0.00,,RA,0.00,VWS V14.01,2013-02-26 06:59:00,
2013-02-26 02:00:00,34.5,24.3,30.01,ENE,73,8.0,11.0,66,0.00,,OVC200,0.00,VWS V14.01,2013-02-26 07:00:00,
2013-02-26 02:01:00,34.5,24.3,30.01,NE,54,7.0,12.0,66,0.00,,RA,0.00,VWS V14.01,2013-02-26 07:01:00,
2013-02-26 02:02:00,34.5,24.3,30.01,East,85,7.0,11.0,66,0.00,,RA,0.00,VWS V14.01,2013-02-26 07:02:00,
2013-02-26 02:03:00,34.5,24.3,30.01,ENE,73,10.0,11.0,66,0.00,,RA,0.00,VWS V14.01,2013-02-26 07:03:00,
2013-02-26 02:04:00,34.6,24.4,30.01,ENE,57,10.0,14.0,66,0.00,,RA,0.00,VWS V14.01,2013-02-26 07:04:00,
2013-02-26 02:05:00,34.6,24.4,30.01,ENE,70,13.0,13.0,66,0.00,,OVC200,0.00,VWS V14.01,2013-02-26 07:05:00,
2013-02-26 02:06:00,34.6,24.1,30.01,East,89,14.0,14.0,65,0.00,,RA,0.00,VWS V14.01,2013-02-26 07:06:00,
2013-02-26 02:07:00,34.6,24.1,30.01,ESE,113,9.0,14.0,65,0.00,,RA,0.00,VWS V14.01,2013-02-26 07:07:00,
2013-02-26 02:08:00,34.6,24.4,30.01,ENE,76,7.0,12.0,66,0.00,,RA,0.00,VWS V14.01,2013-02-26 07:08:00,
2013-02-26 02:09:00,34.6,24.4,30.01,East,86,5.0,10.0,66,0.00,,RA,0.00,VWS V14.01,2013-02-26 07:09:00,
2013-02-26 02:10:00,34.5,24.3,30.01,ENE,64,7.0,12.0,66,0.00,,OVC200,0.00,VWS V14.01,2013-02-26 07:10:00,
2013-02-26 02:11:00,34.5,24.3,30.01,NE,53,9.0,13.0,66,0.00,,RA,0.00,VWS V14.01,2013-02-26 07:11:00,
2013-02-26 02:12:00,34.5,24.3,30.00,ENE,71,8.0,10.0,66,0.00,,RA,0.00,VWS V14.01,2013-02-26 07:12:00,
2013-02-26 02:13:00,34.5,24.3,30.00,East,79,8.0,13.0,66,0.00,,RA,0.00,VWS V14.01,2013-02-26 07:13:00,
2013-02-26 02:14:00,34.5,24.3,30.00,East,97,7.0,11.0,66,0.00,,RA,0.00,VWS V14.01,2013-02-26 07:14:00,
2013-02-26 02:15:00,34.5,24.3,30.00,ENE,67,10.0,10.0,66,0.00,,OVC200,0.00,VWS V14.01,2013-02-26 07:15:00,
2013-02-26 02:16:00,34.5,24.3,30.00,East,97,6.0,10.0,66,0.00,,RA,0.00,VWS V14.01,2013-02-26 07:16:00,
2013-02-26 02:17:00,34.5,24.3,30.00,ESE,103,6.0,9.0,66,0.00,,RA,0.00,VWS V14.01,2013-02-26 07:17:00,
2013-02-26 02:18:00,34.5,24.3,30.00,ENE,59,8.0,11.0,66,0.00,,RA,0.00,VWS V14.01,2013-02-26 07:18:00,
2013-02-26 02:19:00,34.5,24.3,30.00,ENE,65,6.0,12.0,66,0.00,,RA,0.00,VWS V14.01,2013-02-26 07:19:00,
2013-02-26 02:20:00,34.5,24.3,29.99,East,91,11.0,15.0,66,0.00,,OVC200,0.00,VWS V14.01,2013-02-26 07:20:00,
2013-02-26 02:21:00,34.5,24.3,29.99,ENE,60,9.0,15.0,66,0.00,,RA,0.00,VWS V14.01,2013-02-26 07:21:00,
2013-02-26 02:22:00,34.5,24.3,29.99,ENE,63,9.0,11.0,66,0.00,,RA,0.00,VWS V14.01,2013-02-26 07:22:00,
2013-02-26 02:23:00,34.5,24.3,29.99,East,80,9.0,12.0,66,0.00,,RA,0.00,VWS V14.01,2013-02-26 07:23:00,
2013-02-26 02:24:00,34.5,24.3,29.99,East,79,7.0,12.0,66,0.00,,RA,0.00,VWS V14.01,2013-02-26 07:24:00,
2013-02-26 02:25:00,34.6,24.4,29.99,ENE,71,9.0,11.0,66,0.00,,OVC200,0.00,VWS V14.01,2013-02-26 07:25:00,
2013-02-26 02:26:00,34.6,24.4,29.99,East,89,9.0,11.0,66,0.00,,RA,0.00,VWS V14.01,2013-02-26 07:26:00,
2013-02-26 02:27:00,34.5,24.3,29.99,East,86,7.0,11.0,66,0.00,,RA,0.00,VWS V14.01,2013-02-26 07:27:00,
2013-02-26 02:28:00,34.5,24.3,29.99,East,92,9.0,9.0,66,0.00,,RA,0.00,VWS V14.01,2013-02-26 07:28:00,
2013-02-26 02:29:00,34.5,24.3,29.99,ENE,76,7.0,9.0,66,0.00,,RA,0.00,VWS V14.01,2013-02-26 07:29:00,
2013-02-26 02:30:00,34.5,24.3,29.98,ENE,75,7.0,12.0,66,0.00,,OVC200,0.00,VWS V14.01,2013-02-26 07:30:00,
2013-02-26 02:31:00,34.5,24.3,29.98,East,79,6.0,11.0,66,0.00,,RA,0.00,VWS V14.01,2013-02-26 07:31:00,
2013-02-26 02:32:00,34.5,24.3,29.98,East,87,5.0,10.0,66,0.00,,RA,0.00,VWS V14.01,2013-02-26 07:32:00,
2013-02-26 02:33:00,34.5,24.3,29.98,ENE,58,6.0,9.0,66,0.00,,RA,0.00,VWS V14.01,2013-02-26 07:33:00,
2013-02-26 02:34:00,34.5,24.3,29.98,ENE,72,11.0,12.0,66,0.00,,RA,0.00,VWS V14.01,2013-02-26 07:34:00,
2013-02-26 02:35:00,34.5,24.3,29.98,NNE,32,9.0,13.0,66,0.00,,OVC200,0.00,VWS V14.01,2013-02-26 07:35:00,
2013-02-26 02:36:00,34.5,24.3,29.98,NE,56,10.0,16.0,66,0.00,,RA,0.00,VWS V14.01,2013-02-26 07:36:00,
2013-02-26 02:37:00,34.5,24.3,29.98,ENE,68,6.0,16.0,66,0.00,,RA,0.00,VWS V14.01,2013-02-26 07:37:00,
2013-02-26 02:38:00,34.5,24.3,29.98,ENE,72,10.0,11.0,66,0.00,,RA,0.00,VWS V14.01,2013-02-26 07:38:00,
2013-02-26 02:39:00,34.5,24.3,29.98,East,97,11.0,11.0,66,0.00,,RA,0.00,VWS V14.01,2013-02-26 07:39:00,
2013-02-26 02:40:00,34.6,24.1,29.98,East,84,11.0,12.0,65,0.00,,OVC200,0.00,VWS V14.01,2013-02-26 07:40:00,
2013-02-26 02:41:00,34.6,24.1,29.98,East,95,10.0,12.0,65,0.00,,RA,0.00,VWS V14.01,2013-02-26 07:41:00,
2013-02-26 02:42:00,34.7,24.1,29.97,East,91,5.0,10.0,65,0.00,,RA,0.00,VWS V14.01,2013-02-26 07:42:00,
2013-02-26 02:43:00,34.7,24.1,29.97,ENE,63,8.0,8.0,65,0.00,,RA,0.00,VWS V14.01,2013-02-26 07:43:00,
2013-02-26 02:44:00,34.7,24.1,29.97,ENE,71,5.0,8.0,65,0.00,,RA,0.00,VWS V14.01,2013-02-26 07:44:00,
2013-02-26 02:45:00,34.7,24.1,29.97,East,79,5.0,9.0,65,0.00,,OVC200,0.00,VWS V14.01,2013-02-26 07:45:00,
2013-02-26 02:46:00,34.6,24.1,29.97,ENE,57,6.0,9.0,65,0.00,,RA,0.00,VWS V14.01,2013-02-26 07:46:00,
2013-02-26 02:47:00,34.6,24.4,29.97,ESE,103,5.0,9.0,66,0.00,,RA,0.00,VWS V14.01,2013-02-26 07:47:00,
2013-02-26 02:48:00,34.6,24.4,29.97,East,86,10.0,10.0,66,0.00,,RA,0.00,VWS V14.01,2013-02-26 07:48:00,
2013-02-26 02:49:00,34.7,24.1,29.97,East,98,7.0,15.0,65,0.00,,RA,0.00,VWS V14.01,2013-02-26 07:49:00,
2013-02-26 02:50:00,34.7,24.1,29.97,ENE,78,13.0,14.0,65,0.00,,OVC200,0.00,VWS V14.01,2013-02-26 07:50:00,
2013-02-26 02:51:00,34.8,24.2,29.97,East,81,9.0,15.0,65,0.00,,RA,0.00,VWS V14.01,2013-02-26 07:51:00,
2013-02-26 02:52:00,34.8,24.2,29.97,ENE,64,11.0,15.0,65,0.00,,RA,0.00,VWS V14.01,2013-02-26 07:52:00,
2013-02-26 02:53:00,34.8,24.2,29.97,East,96,8.0,14.0,65,0.00,,RA,0.00,VWS V14.01,2013-02-26 07:53:00,
2013-02-26 02:54:00,34.8,24.2,29.97,East,85,10.0,14.0,65,0.00,,RA,0.00,VWS V14.01,2013-02-26 07:54:00,
2013-02-26 02:55:00,34.8,24.2,29.96,ENE,75,5.0,13.0,65,0.00,,OVC200,0.00,VWS V14.01,2013-02-26 07:55:00,
2013-02-26 02:56:00,34.8,24.2,29.96,ENE,65,13.0,15.0,65,0.00,,RA,0.00,VWS V14.01,2013-02-26 07:56:00,
2013-02-26 02:57:00,34.8,24.2,29.96,ENE,66,12.0,15.0,65,0.00,,RA,0.00,VWS V14.01,2013-02-26 07:57:00,
2013-02-26 02:58:00,34.8,24.2,29.96,ENE,62,8.0,15.0,65,0.00,,RA,0.00,VWS V14.01,2013-02-26 07:58:00,
2013-02-26 02:59:00,34.8,24.2,29.96,ENE,72,11.0,14.0,65,0.00,,RA,0.00,VWS V14.01,2013-02-26 07:59:00,
2013-02-26 03:00:00,34.8,24.2,29.96,East,96,9.0,14.0,65,0.00,,OVC200,0.00,VWS V14.01,2013-02-26 08:00:00,
2013-02-26 03:01:00,34.8,24.2,29.96,East,79,7.0,13.0,65,0.00,,RA,0.00,VWS V14.01,2013-02-26 08:01:00,
2013-02-26 03:02:00,34.7,24.1,29.95,East,85,13.0,16.0,65,0.00,,RA,0.00,VWS V14.01,2013-02-26 08:02:00,
2013-02-26 03:03:00,34.7,24.1,29.95,NE,48,9.0,16.0,65,0.00,,RA,0.00,VWS V14.01,2013-02-26 08:03:00,
2013-02-26 03:04:00,34.7,24.1,29.95,NE,37,10.0,15.0,65,0.00,,RA,0.00,VWS V14.01,2013-02-26 08:04:00,
2013-02-26 03:05:00,34.7,24.1,29.95,ENE,62,16.0,16.0,65,0.00,,OVC190,0.00,VWS V14.01,2013-02-26 08:05:00,
2013-02-26 03:06:00,34.7,24.1,29.95,ENE,68,10.0,17.0,65,0.00,,RA,0.00,VWS V14.01,2013-02-26 08:06:00,
2013-02-26 03:07:00,34.7,24.1,29.95,ENE,69,13.0,21.0,65,0.00,,RA,0.00,VWS V14.01,2013-02-26 08:07:00,
2013-02-26 03:08:00,34.8,24.2,29.95,ENE,66,10.0,17.0,65,0.00,,RA,0.00,VWS V14.01,2013-02-26 08:08:00,
2013-02-26 03:09:00,34.8,24.2,29.95,East,82,8.0,15.0,65,0.00,,RA,0.00,VWS V14.01,2013-02-26 08:09:00,
2013-02-26 03:10:00,34.8,24.2,29.95,ESE,108,7.0,13.0,65,0.00,,OVC190,0.00,VWS V14.01,2013-02-26 08:10:00,
2013-02-26 03:11:00,34.8,24.2,29.95,East,86,11.0,13.0,65,0.00,,RA,0.00,VWS V14.01,2013-02-26 08:11:00,
2013-02-26 03:12:00,34.8,24.2,29.95,ESE,113,12.0,19.0,65,0.00,,RA,0.00,VWS V14.01,2013-02-26 08:12:00,
2013-02-26 03:13:00,34.8,24.2,29.94,East,83,7.0,19.0,65,0.00,,RA,0.00,VWS V14.01,2013-02-26 08:13:00,
2013-02-26 03:14:00,34.8,24.2,29.94,East,79,13.0,17.0,65,0.00,,RA,0.00,VWS V14.01,2013-02-26 08:14:00,
2013-02-26 03:15:00,34.8,24.2,29.94,ENE,71,6.0,15.0,65,0.00,,OVC190,0.00,VWS V14.01,2013-02-26 08:15:00,
2013-02-26 03:16:00,34.8,24.2,29.94,ENE,76,15.0,15.0,65,0.00,,RA,0.00,VWS V14.01,2013-02-26 08:16:00,
2013-02-26 03:17:00,34.8,24.2,29.94,East,82,10.0,15.0,65,0.00,,RA,0.00,VWS V14.01,2013-02-26 08:17:00,
2013-02-26 03:18:00,34.7,24.1,29.94,East,90,15.0,15.0,65,0.00,,RA,0.00,VWS V14.01,2013-02-26 08:18:00,
2013-02-26 03:19:00,34.7,24.1,29.94,East,80,10.0,15.0,65,0.00,,RA,0.00,VWS V14.01,2013-02-26 08:19:00,
2013-02-26 03:20:00,34.7,24.1,29.95,East,86,10.0,14.0,65,0.00,,OVC190,0.00,VWS V14.01,2013-02-26 08:20:00,
2013-02-26 03:21:00,34.7,24.1,29.95,ESE,104,10.0,16.0,65,0.00,,RA,0.00,VWS V14.01,2013-02-26 08:21:00,
2013-02-26 03:22:00,34.7,24.1,29.95,East,88,10.0,16.0,65,0.00,,RA,0.00,VWS V14.01,2013-02-26 08:22:00,
2013-02-26 03:23:00,34.7,24.1,29.95,ENE,78,10.0,16.0,65,0.00,,RA,0.00,VWS V14.01,2013-02-26 08:23:00,
2013-02-26 03:24:00,34.7,24.1,29.95,East,91,15.0,17.0,65,0.00,,RA,0.00,VWS V14.01,2013-02-26 08:24:00,
2013-02-26 03:25:00,34.7,24.1,29.95,ENE,71,10.0,17.0,65,0.00,,OVC190,0.00,VWS V14.01,2013-02-26 08:25:00,
2013-02-26 03:26:00,34.7,24.1,29.95,ENE,71,8.0,12.0,65,0.00,,RA,0.00,VWS V14.01,2013-02-26 08:26:00,
2013-02-26 03:27:00,34.7,24.1,29.94,East,90,8.0,16.0,65,0.00,,RA,0.00,VWS V14.01,2013-02-26 08:27:00,
2013-02-26 03:28:00,34.7,24.1,29.95,ENE,65,9.0,14.0,65,0.00,,RA,0.00,VWS V14.01,2013-02-26 08:28:00,
2013-02-26 03:29:00,34.7,24.1,29.95,East,86,16.0,16.0,65,0.00,,RA,0.00,VWS V14.01,2013-02-26 08:29:00,
2013-02-26 03:30:00,34.7,24.1,29.94,East,98,7.0,16.0,65,0.00,,OVC190,0.00,VWS V14.01,2013-02-26 08:30:00,
2013-02-26 03:31:00,34.7,24.1,29.94,ENE,76,8.0,12.0,65,0.00,,RA,0.00,VWS V14.01,2013-02-26 08:31:00,
2013-02-26 03:32:00,34.6,24.1,29.94,East,83,9.0,12.0,65,0.00,,RA,0.00,VWS V14.01,2013-02-26 08:32:00,
2013-02-26 03:33:00,34.6,24.1,29.94,ENE,69,16.0,16.0,65,0.00,,RA,0.00,VWS V14.01,2013-02-26 08:33:00,
2013-02-26 03:34:00,34.6,24.1,29.94,ENE,66,7.0,17.0,65,0.00,,RA,0.00,VWS V14.01,2013-02-26 08:34:00,
2013-02-26 03:35:00,34.6,24.1,29.94,ENE,71,7.0,13.0,65,0.00,,OVC190,0.00,VWS V14.01,2013-02-26 08:35:00,
2013-02-26 03:36:00,34.6,24.1,29.94,East,89,7.0,9.0,65,0.00,,RA,0.00,VWS V14.01,2013-02-26 08:36:00,
2013-02-26 03:37:00,34.5,24.3,29.94,East,87,7.0,10.0,66,0.00,,RA,0.00,VWS V14.01,2013-02-26 08:37:00,
2013-02-26 03:38:00,34.5,24.3,29.93,ENE,73,10.0,14.0,66,0.00,,RA,0.00,VWS V14.01,2013-02-26 08:38:00,
2013-02-26 03:39:00,34.5,24.3,29.93,ENE,64,11.0,14.0,66,0.00,,RA,0.00,VWS V14.01,2013-02-26 08:39:00,
2013-02-26 03:40:00,34.5,24.3,29.93,East,84,8.0,12.0,66,0.00,,OVC190,0.00,VWS V14.01,2013-02-26 08:40:00,
2013-02-26 03:41:00,34.4,24.2,29.93,East,82,13.0,13.0,66,0.00,,RA,0.00,VWS V14.01,2013-02-26 08:41:00,
2013-02-26 03:42:00,34.4,24.2,29.93,NE,49,10.0,13.0,66,0.00,,RA,0.00,VWS V14.01,2013-02-26 08:42:00,
2013-02-26 03:43:00,34.4,24.2,29.92,East,79,12.0,15.0,66,0.00,,RA,0.00,VWS V14.01,2013-02-26 08:43:00,
2013-02-26 03:44:00,34.5,24.3,29.92,East,79,6.0,15.0,66,0.00,,RA,0.00,VWS V14.01,2013-02-26 08:44:00,
2013-02-26 03:45:00,34.5,24.3,29.92,ENE,78,11.0,13.0,66,0.00,,OVC190,0.00,VWS V14.01,2013-02-26 08:45:00,
2013-02-26 03:46:00,34.5,24.3,29.92,SE,124,8.0,15.0,66,0.00,,RA,0.00,VWS V14.01,2013-02-26 08:46:00,
2013-02-26 03:48:00,34.5,24.3,29.92,East,79,14.0,14.0,66,0.00,,RA,0.00,VWS V14.01,2013-02-26 08:48:00,
2013-02-26 03:49:00,34.5,24.3,29.92,East,101,9.0,14.0,66,0.00,,RA,0.00,VWS V14.01,2013-02-26 08:49:00,
2013-02-26 03:50:00,34.5,24.3,29.92,ESE,114,8.0,11.0,66,0.00,,OVC190,0.00,VWS V14.01,2013-02-26 08:50:00,
2013-02-26 03:51:00,34.4,24.2,29.92,East,89,11.0,12.0,66,0.00,,RA,0.00,VWS V14.01,2013-02-26 08:51:00,
2013-02-26 03:52:00,34.5,24.3,29.92,ESE,115,11.0,15.0,66,0.00,,RA,0.00,VWS V14.01,2013-02-26 08:52:00,
2013-02-26 03:53:00,34.4,24.2,29.92,East,84,6.0,15.0,66,0.00,,RA,0.00,VWS V14.01,2013-02-26 08:53:00,
2013-02-26 03:54:00,34.5,24.3,29.92,ENE,72,7.0,10.0,66,0.00,,RA,0.00,VWS V14.01,2013-02-26 08:54:00,
2013-02-26 03:55:00,34.4,24.2,29.92,ENE,74,10.0,12.0,66,0.00,,OVC190,0.00,VWS V14.01,2013-02-26 08:55:00,
2013-02-26 03:56:00,34.5,24.3,29.92,ENE,78,15.0,15.0,66,0.00,,RA,0.00,VWS V14.01,2013-02-26 08:56:00,
2013-02-26 03:57:00,34.4,24.2,29.92,East,82,13.0,17.0,66,0.00,,RA,0.00,VWS V14.01,2013-02-26 08:57:00,
2013-02-26 03:58:00,34.5,24.3,29.92,East,95,13.0,14.0,66,0.00,,RA,0.00,VWS V14.01,2013-02-26 08:58:00,
2013-02-26 03:59:00,34.5,24.3,29.92,East,96,10.0,14.0,66,0.00,,RA,0.00,VWS V14.01,2013-02-26 08:59:00,
2013-02-26 04:00:00,34.5,24.3,29.92,East,80,6.0,12.0,66,0.00,,OVC190,0.00,VWS V14.01,2013-02-26 09:00:00,
2013-02-26 04:01:00,34.5,24.3,29.92,ENE,76,7.0,12.0,66,0.00,,RA,0.00,VWS V14.01,2013-02-26 09:01:00,
2013-02-26 04:02:00,34.5,24.3,29.92,East,97,6.0,11.0,66,0.00,,RA,0.00,VWS V14.01,2013-02-26 09:02:00,
2013-02-26 04:03:00,34.4,24.2,29.92,East,84,7.0,9.0,66,0.00,,RA,0.00,VWS V14.01,2013-02-26 09:03:00,
2013-02-26 04:04:00,34.4,24.2,29.92,ENE,77,6.0,9.0,66,0.00,,RA,0.00,VWS V14.01,2013-02-26 09:04:00,
2013-02-26 04:05:00,34.4,24.2,29.92,East,82,3.0,8.0,66,0.00,,OVC190,0.00,VWS V14.01,2013-02-26 09:05:00,
2013-02-26 04:06:00,34.4,24.2,29.92,East,84,4.0,8.0,66,0.00,,RA,0.00,VWS V14.01,2013-02-26 09:06:00,
2013-02-26 04:07:00,34.4,24.2,29.92,ESE,117,4.0,9.0,66,0.00,,RA,0.00,VWS V14.01,2013-02-26 09:07:00,
2013-02-26 04:08:00,34.4,24.2,29.92,ENE,65,9.0,10.0,66,0.00,,RA,0.00,VWS V14.01,2013-02-26 09:08:00,
2013-02-26 04:09:00,34.4,24.2,29.92,East,95,6.0,10.0,66,0.00,,RA,0.00,VWS V14.01,2013-02-26 09:09:00,
2013-02-26 04:10:00,34.4,24.2,29.92,ENE,72,4.0,8.0,66,0.00,,OVC190,0.00,VWS V14.01,2013-02-26 09:10:00,
2013-02-26 04:11:00,34.3,24.1,29.92,SSE,151,4.0,9.0,66,0.00,,RA,0.00,VWS V14.01,2013-02-26 09:11:00,
2013-02-26 04:12:00,34.3,24.1,29.92,East,91,6.0,9.0,66,0.00,,RA,0.00,VWS V14.01,2013-02-26 09:12:00,
2013-02-26 04:13:00,34.3,24.1,29.92,East,84,5.0,10.0,66,0.00,,RA,0.00,VWS V14.01,2013-02-26 09:13:00,
2013-02-26 04:14:00,34.4,24.2,29.92,East,82,6.0,10.0,66,0.00,,RA,0.00,VWS V14.01,2013-02-26 09:14:00,
2013-02-26 04:15:00,34.4,24.2,29.92,ESE,120,3.0,7.0,66,0.00,,OVC190,0.00,VWS V14.01,2013-02-26 09:15:00,
2013-02-26 04:16:00,34.3,24.1,29.92,ENE,77,4.0,6.0,66,0.00,,RA,0.00,VWS V14.01,2013-02-26 09:16:00,
2013-02-26 04:17:00,34.3,24.1,29.92,ESE,120,5.0,12.0,66,0.00,,RA,0.00,VWS V14.01,2013-02-26 09:17:00,
2013-02-26 04:18:00,34.3,24.1,29.92,ESE,105,5.0,10.0,66,0.00,,RA,0.00,VWS V14.01,2013-02-26 09:18:00,
2013-02-26 04:19:00,34.3,24.1,29.92,ESE,105,4.0,7.0,66,0.00,,RA,0.00,VWS V14.01,2013-02-26 09:19:00,
2013-02-26 04:20:00,34.3,24.1,29.92,ESE,108,3.0,11.0,66,0.00,,OVC190,0.00,VWS V14.01,2013-02-26 09:20:00,
2013-02-26 04:21:00,34.3,24.1,29.92,ENE,77,4.0,5.0,66,0.00,,RA,0.00,VWS V14.01,2013-02-26 09:21:00,
2013-02-26 04:22:00,34.3,24.5,29.92,East,80,4.0,9.0,67,0.00,,RA,0.00,VWS V14.01,2013-02-26 09:22:00,
2013-02-26 04:23:00,34.3,24.5,29.92,East,83,4.0,9.0,67,0.00,,RA,0.00,VWS V14.01,2013-02-26 09:23:00,
2013-02-26 04:24:00,34.2,24.4,29.93,East,94,6.0,9.0,67,0.00,,RA,0.00,VWS V14.01,2013-02-26 09:24:00,
2013-02-26 04:25:00,34.2,24.4,29.93,ESE,105,6.0,9.0,67,0.00,,OVC190,0.00,VWS V14.01,2013-02-26 09:25:00,
2013-02-26 04:26:00,34.1,24.3,29.93,East,83,6.0,8.0,67,0.00,,RA,0.00,VWS V14.01,2013-02-26 09:26:00,
2013-02-26 04:27:00,34.1,24.3,29.93,SE,131,4.0,9.0,67,0.00,,RA,0.00,VWS V14.01,2013-02-26 09:27:00,
2013-02-26 04:28:00,34.1,24.3,29.93,ENE,69,4.0,9.0,67,0.00,,RA,0.00,VWS V14.01,2013-02-26 09:28:00,
2013-02-26 04:29:00,34.1,24.3,29.93,ENE,70,5.0,9.0,67,0.00,,RA,0.00,VWS V14.01,2013-02-26 09:29:00,
2013-02-26 04:30:00,34.1,24.3,29.92,ESE,121,4.0,6.0,67,0.00,,OVC190,0.00,VWS V14.01,2013-02-26 09:30:00,
2013-02-26 04:31:00,34.0,24.2,29.93,East,85,5.0,7.0,67,0.00,,RA,0.00,VWS V14.01,2013-02-26 09:31:00,
2013-02-26 04:32:00,34.0,24.6,29.92,ESE,108,6.0,7.0,68,0.00,,RA,0.00,VWS V14.01,2013-02-26 09:32:00,
2013-02-26 04:33:00,33.9,24.5,29.92,ENE,68,7.0,7.0,68,0.00,,RA,0.00,VWS V14.01,2013-02-26 09:33:00,
2013-02-26 04:34:00,33.9,24.5,29.92,ENE,69,4.0,7.0,68,0.00,,RA,0.00,VWS V14.01,2013-02-26 09:34:00,
2013-02-26 04:35:00,33.9,24.5,29.92,East,89,4.0,7.0,68,0.00,,OVC190,0.00,VWS V14.01,2013-02-26 09:35:00,
2013-02-26 04:36:00,33.9,24.5,29.92,ENE,66,6.0,12.0,68,0.00,,RA,0.00,VWS V14.01,2013-02-26 09:36:00,
2013-02-26 04:37:00,33.9,24.1,29.92,East,88,6.0,10.0,67,0.00,,RA,0.00,VWS V14.01,2013-02-26 09:37:00,
2013-02-26 04:38:00,34.0,24.2,29.92,East,84,6.0,7.0,67,0.00,,RA,0.00,VWS V14.01,2013-02-26 09:38:00,
2013-02-26 04:39:00,34.0,24.2,29.92,East,91,6.0,7.0,67,0.00,,RA,0.00,VWS V14.01,2013-02-26 09:39:00,
2013-02-26 04:40:00,34.0,24.2,29.92,East,98,6.0,10.0,67,0.00,,OVC190,0.00,VWS V14.01,2013-02-26 09:40:00,
2013-02-26 04:41:00,34.0,24.2,29.92,ENE,70,7.0,10.0,67,0.00,,RA,0.00,VWS V14.01,2013-02-26 09:41:00,
2013-02-26 04:42:00,34.0,24.2,29.92,East,89,6.0,9.0,67,0.00,,RA,0.00,VWS V14.01,2013-02-26 09:42:00,
2013-02-26 04:43:00,34.0,24.2,29.92,East,82,7.0,9.0,67,0.00,,RA,0.00,VWS V14.01,2013-02-26 09:43:00,
2013-02-26 04:44:00,34.0,24.2,29.93,ENE,63,8.0,8.0,67,0.00,,RA,0.00,VWS V14.01,2013-02-26 09:44:00,
2013-02-26 04:45:00,34.0,24.2,29.92,ESE,104,5.0,8.0,67,0.00,,OVC190,0.00,VWS V14.01,2013-02-26 09:45:00,
2013-02-26 04:46:00,34.0,24.2,29.92,East,89,6.0,8.0,67,0.00,,RA,0.00,VWS V14.01,2013-02-26 09:46:00,
2013-02-26 04:47:00,34.0,24.2,29.92,ENE,72,6.0,8.0,67,0.00,,RA,0.00,VWS V14.01,2013-02-26 09:47:00,
2013-02-26 04:48:00,34.0,24.2,29.92,ENE,68,7.0,8.0,67,0.00,,RA,0.00,VWS V14.01,2013-02-26 09:48:00,
2013-02-26 04:49:00,34.0,24.2,29.92,ESE,110,5.0,7.0,67,0.00,,RA,0.00,VWS V14.01,2013-02-26 09:49:00,
2013-02-26 04:50:00,34.0,24.2,29.92,East,93,8.0,11.0,67,0.00,,OVC190,0.00,VWS V14.01,2013-02-26 09:50:00,
2013-02-26 04:51:00,34.0,24.2,29.92,East,86,5.0,11.0,67,0.00,,RA,0.00,VWS V14.01,2013-02-26 09:51:00,
2013-02-26 04:52:00,34.0,24.2,29.92,ESE,110,6.0,11.0,67,0.00,,RA,0.00,VWS V14.01,2013-02-26 09:52:00,
2013-02-26 04:53:00,34.0,24.2,29.92,ENE,70,8.0,9.0,67,0.00,,RA,0.00,VWS V14.01,2013-02-26 09:53:00,
2013-02-26 04:54:00,34.0,24.2,29.92,East,83,10.0,10.0,67,0.00,,RA,0.00,VWS V14.01,2013-02-26 09:54:00,
2013-02-26 04:55:00,34.0,24.2,29.92,East,97,6.0,11.0,67,0.00,,OVC190,0.00,VWS V14.01,2013-02-26 09:55:00,
2013-02-26 04:56:00,34.0,24.2,29.92,ENE,77,8.0,8.0,67,0.00,,RA,0.00,VWS V14.01,2013-02-26 09:56:00,
2013-02-26 04:57:00,34.0,24.2,29.92,ENE,57,11.0,12.0,67,0.00,,RA,0.00,VWS V14.01,2013-02-26 09:57:00,
2013-02-26 04:58:00,34.0,24.2,29.92,East,79,9.0,11.0,67,0.00,,RA,0.00,VWS V14.01,2013-02-26 09:58:00,
2013-02-26 04:59:00,34.0,24.2,29.92,ENE,72,9.0,13.0,67,0.00,,RA,0.00,VWS V14.01,2013-02-26 09:59:00,
2013-02-26 05:00:00,34.1,24.3,29.92,East,91,9.0,12.0,67,0.00,,OVC190,0.00,VWS V14.01,2013-02-26 10:00:00,
2013-02-26 05:01:00,34.1,24.3,29.91,ENE,72,6.0,11.0,67,0.00,,RA,0.00,VWS V14.01,2013-02-26 10:01:00,
2013-02-26 05:02:00,34.1,24.3,29.91,East,94,8.0,11.0,67,0.00,,RA,0.00,VWS V14.01,2013-02-26 10:02:00,
2013-02-26 05:03:00,34.1,24.3,29.91,ENE,66,4.0,10.0,67,0.00,,RA,0.00,VWS V14.01,2013-02-26 10:03:00,
2013-02-26 05:04:00,34.1,24.3,29.91,ENE,58,8.0,10.0,67,0.00,,RA,0.00,VWS V14.01,2013-02-26 10:04:00,
2013-02-26 05:05:00,34.1,24.3,29.91,NE,49,8.0,11.0,67,0.00,,OVC150,0.00,VWS V14.01,2013-02-26 10:05:00,
2013-02-26 05:06:00,34.1,24.3,29.91,East,83,9.0,13.0,67,0.00,,RA,0.00,VWS V14.01,2013-02-26 10:06:00,
2013-02-26 05:07:00,34.1,24.3,29.91,East,87,6.0,10.0,67,0.00,,RA,0.00,VWS V14.01,2013-02-26 10:07:00,
2013-02-26 05:08:00,34.1,24.3,29.91,East,91,6.0,10.0,67,0.00,,RA,0.00,VWS V14.01,2013-02-26 10:08:00,
2013-02-26 05:09:00,34.1,24.3,29.90,NE,55,5.0,11.0,67,0.00,,RA,0.00,VWS V14.01,2013-02-26 10:09:00,
2013-02-26 05:10:00,34.1,24.3,29.90,ENE,68,8.0,11.0,67,0.00,,OVC150,0.00,VWS V14.01,2013-02-26 10:10:00,
2013-02-26 05:11:00,34.1,24.3,29.90,ENE,78,8.0,11.0,67,0.00,,RA,0.00,VWS V14.01,2013-02-26 10:11:00,
2013-02-26 05:12:00,34.1,24.3,29.90,East,82,6.0,11.0,67,0.00,,RA,0.00,VWS V14.01,2013-02-26 10:12:00,
2013-02-26 05:13:00,34.1,24.3,29.91,ENE,65,6.0,9.0,67,0.00,,RA,0.00,VWS V14.01,2013-02-26 10:13:00,
2013-02-26 05:14:00,34.1,24.3,29.90,ENE,68,10.0,10.0,67,0.00,,RA,0.00,VWS V14.01,2013-02-26 10:14:00,
2013-02-26 05:15:00,34.1,24.3,29.90,ENE,73,6.0,10.0,67,0.00,,OVC150,0.00,VWS V14.01,2013-02-26 10:15:00,
2013-02-26 05:16:00,34.2,24.4,29.90,ENE,60,9.0,13.0,67,0.00,,RA,0.00,VWS V14.01,2013-02-26 10:16:00,
2013-02-26 05:17:00,34.2,24.4,29.90,ENE,62,10.0,11.0,67,0.00,,RA,0.00,VWS V14.01,2013-02-26 10:17:00,
2013-02-26 05:18:00,34.2,24.4,29.89,ENE,65,10.0,13.0,67,0.00,,RA,0.00,VWS V14.01,2013-02-26 10:18:00,
2013-02-26 05:19:00,34.2,24.4,29.89,ENE,65,7.0,13.0,67,0.00,,RA,0.00,VWS V14.01,2013-02-26 10:19:00,
2013-02-26 05:20:00,34.2,24.4,29.89,East,82,10.0,13.0,67,0.00,,OVC150,0.00,VWS V14.01,2013-02-26 10:20:00,
2013-02-26 05:21:00,34.2,24.4,29.89,NE,45,11.0,13.0,67,0.00,,RA,0.00,VWS V14.01,2013-02-26 10:21:00,
2013-02-26 05:22:00,34.3,24.5,29.89,NE,56,14.0,14.0,67,0.00,,RA,0.00,VWS V14.01,2013-02-26 10:22:00,
2013-02-26 05:23:00,34.3,24.5,29.89,ENE,75,9.0,14.0,67,0.00,,RA,0.00,VWS V14.01,2013-02-26 10:23:00,
2013-02-26 05:24:00,34.3,24.5,29.89,East,86,13.0,14.0,67,0.00,,RA,0.00,VWS V14.01,2013-02-26 10:24:00,
2013-02-26 05:25:00,34.4,24.2,29.89,ENE,71,10.0,14.0,66,0.00,,OVC150,0.00,VWS V14.01,2013-02-26 10:25:00,
2013-02-26 05:26:00,34.4,24.2,29.89,ENE,66,8.0,16.0,66,0.00,,RA,0.00,VWS V14.01,2013-02-26 10:26:00,
2013-02-26 05:27:00,34.5,24.3,29.89,East,79,11.0,16.0,66,0.00,,RA,0.00,VWS V14.01,2013-02-26 10:27:00,
2013-02-26 05:28:00,34.4,24.2,29.88,ENE,72,10.0,14.0,66,0.00,,RA,0.00,VWS V14.01,2013-02-26 10:28:00,
2013-02-26 05:29:00,34.5,24.3,29.88,ENE,75,12.0,14.0,66,0.00,,RA,0.00,VWS V14.01,2013-02-26 10:29:00,
2013-02-26 05:30:00,34.5,24.3,29.88,WNW,297,12.0,12.0,66,0.00,,OVC150,0.00,VWS V14.01,2013-02-26 10:30:00,
2013-02-26 05:31:00,34.5,24.3,29.88,East,90,11.0,15.0,66,0.00,,RA,0.00,VWS V14.01,2013-02-26 10:31:00,
2013-02-26 05:32:00,34.5,24.3,29.88,East,90,8.0,15.0,66,0.00,,RA,0.00,VWS V14.01,2013-02-26 10:32:00,
2013-02-26 05:33:00,34.6,24.4,29.88,ENE,75,8.0,13.0,66,0.00,,RA,0.00,VWS V14.01,2013-02-26 10:33:00,
2013-02-26 05:34:00,34.6,24.4,29.88,NE,55,8.0,13.0,66,0.00,,RA,0.00,VWS V14.01,2013-02-26 10:34:00,
2013-02-26 05:35:00,34.6,24.4,29.88,ENE,57,7.0,13.0,66,0.00,,OVC150,0.00,VWS V14.01,2013-02-26 10:35:00,
2013-02-26 05:36:00,34.6,24.4,29.88,NE,56,9.0,13.0,66,0.00,,RA,0.00,VWS V14.01,2013-02-26 10:36:00,
2013-02-26 05:37:00,34.6,24.4,29.88,ENE,70,7.0,11.0,66,0.00,,RA,0.00,VWS V14.01,2013-02-26 10:37:00,
2013-02-26 05:38:00,34.7,24.5,29.89,East,84,9.0,12.0,66,0.00,,RA,0.00,VWS V14.01,2013-02-26 10:38:00,
2013-02-26 05:39:00,34.7,24.5,29.89,East,98,6.0,11.0,66,0.00,,RA,0.00,VWS V14.01,2013-02-26 10:39:00,
2013-02-26 05:40:00,34.7,24.5,29.89,ENE,68,4.0,8.0,66,0.00,,OVC150,0.00,VWS V14.01,2013-02-26 10:40:00,
2013-02-26 05:41:00,34.7,24.1,29.89,East,99,9.0,10.0,65,0.00,,RA,0.00,VWS V14.01,2013-02-26 10:41:00,
2013-02-26 05:42:00,34.8,24.2,29.88,ENE,57,4.0,13.0,65,0.00,,RA,0.00,VWS V14.01,2013-02-26 10:42:00,
2013-02-26 05:43:00,34.8,24.2,29.88,East,79,5.0,9.0,65,0.00,,RA,0.00,VWS V14.01,2013-02-26 10:43:00,
2013-02-26 05:44:00,34.8,24.2,29.89,East,86,9.0,12.0,65,0.00,,RA,0.00,VWS V14.01,2013-02-26 10:44:00,
2013-02-26 05:45:00,34.8,24.2,29.89,ENE,67,11.0,14.0,65,0.00,,OVC150,0.00,VWS V14.01,2013-02-26 10:45:00,
2013-02-26 05:46:00,34.9,24.3,29.89,NE,47,12.0,14.0,65,0.00,,RA,0.00,VWS V14.01,2013-02-26 10:46:00,
2013-02-26 05:47:00,34.9,24.3,29.89,East,91,8.0,12.0,65,0.00,,RA,0.00,VWS V14.01,2013-02-26 10:47:00,
2013-02-26 05:48:00,34.9,24.3,29.88,East,99,11.0,12.0,65,0.00,,RA,0.00,VWS V14.01,2013-02-26 10:48:00,
2013-02-26 05:49:00,34.9,24.3,29.88,East,80,6.0,16.0,65,0.00,,RA,0.00,VWS V14.01,2013-02-26 10:49:00,
2013-02-26 05:50:00,35.0,24.4,29.88,ENE,71,7.0,16.0,65,0.00,,OVC150,0.00,VWS V14.01,2013-02-26 10:50:00,
2013-02-26 05:51:00,35.0,24.4,29.88,ESE,102,8.0,10.0,65,0.00,,RA,0.00,VWS V14.01,2013-02-26 10:51:00,
2013-02-26 05:52:00,35.0,24.4,29.88,East,86,12.0,12.0,65,0.00,,RA,0.00,VWS V14.01,2013-02-26 10:52:00,
2013-02-26 05:53:00,35.0,24.4,29.88,East,84,8.0,15.0,65,0.00,,RA,0.00,VWS V14.01,2013-02-26 10:53:00,
2013-02-26 05:54:00,35.0,24.4,29.88,NE,46,14.0,17.0,65,0.00,,RA,0.00,VWS V14.01,2013-02-26 10:54:00,
2013-02-26 05:55:00,35.0,24.4,29.88,East,82,9.0,17.0,65,0.00,,OVC150,0.00,VWS V14.01,2013-02-26 10:55:00,
2013-02-26 05:56:00,35.0,24.4,29.88,East,90,13.0,13.0,65,0.00,,RA,0.00,VWS V14.01,2013-02-26 10:56:00,
2013-02-26 05:57:00,35.1,24.5,29.87,ENE,71,11.0,17.0,65,0.00,,RA,0.00,VWS V14.01,2013-02-26 10:57:00,
2013-02-26 05:58:00,35.0,24.4,29.87,ENE,60,9.0,15.0,65,0.00,,RA,0.00,VWS V14.01,2013-02-26 10:58:00,
2013-02-26 05:59:00,35.1,24.5,29.87,ENE,70,10.0,15.0,65,0.00,,RA,0.00,VWS V14.01,2013-02-26 10:59:00,
2013-02-26 06:00:00,35.1,24.5,29.87,East,79,7.0,16.0,65,0.00,,OVC150,0.00,VWS V14.01,2013-02-26 11:00:00,
2013-02-26 06:01:00,35.1,24.5,29.87,East,79,11.0,16.0,65,0.00,,RA,0.00,VWS V14.01,2013-02-26 11:01:00,
2013-02-26 06:02:00,35.1,24.5,29.87,East,84,7.0,11.0,65,0.00,,RA,0.00,VWS V14.01,2013-02-26 11:02:00,
2013-02-26 06:03:00,35.1,24.5,29.88,ENE,70,15.0,15.0,65,0.00,,RA,0.00,VWS V14.01,2013-02-26 11:03:00,
2013-02-26 06:04:00,35.1,24.5,29.88,East,79,10.0,15.0,65,0.00,,RA,0.00,VWS V14.01,2013-02-26 11:04:00,
2013-02-26 06:05:00,35.1,24.5,29.88,ENE,70,5.0,13.0,65,0.00,,OVC150,0.00,VWS V14.01,2013-02-26 11:05:00,
2013-02-26 06:06:00,35.1,24.5,29.88,ENE,78,14.0,14.0,65,0.00,,RA,0.00,VWS V14.01,2013-02-26 11:06:00,
2013-02-26 06:07:00,35.1,24.5,29.87,ENE,65,8.0,14.0,65,0.00,,RA,0.00,VWS V14.01,2013-02-26 11:07:00,
2013-02-26 06:08:00,35.1,24.5,29.87,East,96,9.0,12.0,65,0.00,,RA,0.00,VWS V14.01,2013-02-26 11:08:00,
2013-02-26 06:09:00,35.1,24.5,29.87,East,84,12.0,16.0,65,0.00,,RA,0.00,VWS V14.01,2013-02-26 11:09:00,
2013-02-26 06:10:00,35.1,24.5,29.87,ENE,69,7.0,14.0,65,0.00,,OVC150,0.00,VWS V14.01,2013-02-26 11:10:00,
2013-02-26 06:11:00,35.2,24.6,29.87,East,89,8.0,14.0,65,0.00,,RA,0.00,VWS V14.01,2013-02-26 11:11:00,
2013-02-26 06:12:00,35.2,24.6,29.87,ENE,65,12.0,12.0,65,0.00,,RA,0.00,VWS V14.01,2013-02-26 11:12:00,
2013-02-26 06:13:00,35.2,24.6,29.87,NE,41,10.0,12.0,65,0.00,,RA,0.00,VWS V14.01,2013-02-26 11:13:00,
2013-02-26 06:14:00,35.2,24.6,29.87,ENE,72,11.0,13.0,65,0.00,,RA,0.00,VWS V14.01,2013-02-26 11:14:00,
2013-02-26 06:15:00,35.2,24.6,29.87,ENE,61,9.0,13.0,65,0.00,,OVC150,0.00,VWS V14.01,2013-02-26 11:15:00,
2013-02-26 06:16:00,35.2,24.6,29.87,ENE,78,10.0,14.0,65,0.00,,RA,0.00,VWS V14.01,2013-02-26 11:16:00,
2013-02-26 06:17:00,35.3,24.7,29.87,ENE,60,13.0,16.0,65,0.00,,RA,0.00,VWS V14.01,2013-02-26 11:17:00,
2013-02-26 06:18:00,35.3,24.7,29.87,ENE,61,9.0,16.0,65,0.00,,RA,0.00,VWS V14.01,2013-02-26 11:18:00,
2013-02-26 06:19:00,35.3,24.7,29.87,East,91,10.0,11.0,65,0.00,,RA,0.00,VWS V14.01,2013-02-26 11:19:00,
2013-02-26 06:20:00,35.3,24.7,29.87,ENE,59,8.0,13.0,65,0.00,,OVC150,0.00,VWS V14.01,2013-02-26 11:20:00,
2013-02-26 06:21:00,35.3,24.7,29.87,ENE,65,11.0,11.0,65,0.00,,RA,0.00,VWS V14.01,2013-02-26 11:21:00,
2013-02-26 06:22:00,35.3,24.7,29.86,ENE,75,13.0,13.0,65,0.00,,RA,0.00,VWS V14.01,2013-02-26 11:22:00,
2013-02-26 06:23:00,35.3,24.7,29.86,East,82,10.0,13.0,65,0.00,,RA,0.00,VWS V14.01,2013-02-26 11:23:00,
2013-02-26 06:24:00,35.3,24.7,29.86,ENE,72,9.0,13.0,65,0.00,,RA,0.00,VWS V14.01,2013-02-26 11:24:00,
2013-02-26 06:25:00,35.3,24.7,29.86,ENE,72,12.0,16.0,65,0.00,,OVC150,0.00,VWS V14.01,2013-02-26 11:25:00,
2013-02-26 06:26:00,35.3,24.7,29.86,ENE,62,12.0,17.0,65,0.00,,RA,0.00,VWS V14.01,2013-02-26 11:26:00,
2013-02-26 06:27:00,35.4,24.8,29.86,ENE,75,9.0,12.0,65,0.00,,RA,0.00,VWS V14.01,2013-02-26 11:27:00,
2013-02-26 06:28:00,35.4,24.8,29.86,ENE,62,11.0,12.0,65,0.00,,RA,0.00,VWS V14.01,2013-02-26 11:28:00,
2013-02-26 06:29:00,35.4,24.8,29.86,East,82,6.0,13.0,65,0.00,,RA,0.00,VWS V14.01,2013-02-26 11:29:00,
2013-02-26 06:30:00,35.3,24.7,29.86,NNE,29,8.0,13.0,65,0.00,,OVC150,0.00,VWS V14.01,2013-02-26 11:30:00,
2013-02-26 06:31:00,35.3,24.7,29.86,ESE,119,5.0,13.0,65,0.00,,RA,0.00,VWS V14.01,2013-02-26 11:31:00,
2013-02-26 06:32:00,35.3,24.7,29.87,ESE,113,8.0,13.0,65,0.00,,RA,0.00,VWS V14.01,2013-02-26 11:32:00,
2013-02-26 06:33:00,35.4,24.8,29.87,East,93,10.0,10.0,65,0.00,,RA,0.00,VWS V14.01,2013-02-26 11:33:00,
2013-02-26 06:34:00,35.4,24.8,29.87,East,80,11.0,12.0,65,0.00,,RA,0.00,VWS V14.01,2013-02-26 11:34:00,
2013-02-26 06:35:00,35.4,24.8,29.87,ENE,64,10.0,12.0,65,0.00,,OVC150,0.00,VWS V14.01,2013-02-26 11:35:00,
2013-02-26 06:36:00,35.4,24.5,29.87,East,94,10.0,11.0,64,0.00,,RA,0.00,VWS V14.01,2013-02-26 11:36:00,
2013-02-26 06:37:00,35.5,24.5,29.87,ENE,68,8.0,14.0,64,0.00,,RA,0.00,VWS V14.01,2013-02-26 11:37:00,
2013-02-26 06:38:00,35.5,24.5,29.88,East,84,9.0,10.0,64,0.00,,RA,0.00,VWS V14.01,2013-02-26 11:38:00,
2013-02-26 06:39:00,35.6,24.6,29.88,East,98,10.0,10.0,64,0.00,,RA,0.00,VWS V14.01,2013-02-26 11:39:00,
2013-02-26 06:40:00,35.5,24.5,29.87,ENE,64,11.0,12.0,64,0.00,,OVC150,0.00,VWS V14.01,2013-02-26 11:40:00,
2013-02-26 06:41:00,35.6,24.6,29.87,East,81,12.0,14.0,64,0.00,,RA,0.00,VWS V14.01,2013-02-26 11:41:00,
2013-02-26 06:42:00,35.6,24.6,29.87,East,98,6.0,14.0,64,0.00,,RA,0.00,VWS V14.01,2013-02-26 11:42:00,
2013-02-26 06:43:00,35.6,24.6,29.87,East,85,9.0,9.0,64,0.00,,RA,0.00,VWS V14.01,2013-02-26 11:43:00,
2013-02-26 06:44:00,35.6,24.6,29.87,ENE,70,4.0,15.0,64,0.00,,RA,0.00,VWS V14.01,2013-02-26 11:44:00,
2013-02-26 06:45:00,35.7,24.7,29.86,East,96,10.0,16.0,64,0.00,,OVC150,0.00,VWS V14.01,2013-02-26 11:45:00,
2013-02-26 06:46:00,35.7,24.7,29.86,East,96,6.0,16.0,64,0.00,,RA,0.00,VWS V14.01,2013-02-26 11:46:00,
2013-02-26 06:47:00,35.7,24.7,29.86,ENE,72,11.0,18.0,64,0.00,,RA,0.00,VWS V14.01,2013-02-26 11:47:00,
2013-02-26 06:48:00,35.7,24.7,29.86,East,90,7.0,14.0,64,0.00,,RA,0.00,VWS V14.01,2013-02-26 11:48:00,
2013-02-26 06:49:00,35.7,24.7,29.86,NE,49,10.0,13.0,64,0.00,,RA,0.00,VWS V14.01,2013-02-26 11:49:00,
2013-02-26 06:50:00,35.7,24.7,29.86,NE,53,11.0,12.0,64,0.00,,OVC150,0.00,VWS V14.01,2013-02-26 11:50:00,
2013-02-26 06:51:00,35.7,24.7,29.86,East,86,11.0,16.0,64,0.00,,RA,0.00,VWS V14.01,2013-02-26 11:51:00,
2013-02-26 06:52:00,35.7,24.7,29.85,ENE,70,13.0,13.0,64,0.00,,RA,0.00,VWS V14.01,2013-02-26 11:52:00,
2013-02-26 06:53:00,35.6,25.0,29.85,East,89,12.0,15.0,65,0.00,,RA,0.00,VWS V14.01,2013-02-26 11:53:00,
2013-02-26 06:54:00,35.6,25.0,29.85,East,89,11.0,15.0,65,0.00,,RA,0.00,VWS V14.01,2013-02-26 11:54:00,
2013-02-26 06:55:00,35.6,25.0,29.85,ENE,62,12.0,15.0,65,0.00,,OVC150,0.00,VWS V14.01,2013-02-26 11:55:00,
2013-02-26 06:56:00,35.7,24.7,29.85,East,80,10.0,18.0,64,0.00,,RA,0.00,VWS V14.01,2013-02-26 11:56:00,
2013-02-26 06:57:00,35.6,25.0,29.85,ENE,70,11.0,14.0,65,0.00,,RA,0.00,VWS V14.01,2013-02-26 11:57:00,
2013-02-26 06:58:00,35.7,24.7,29.85,East,89,11.0,19.0,64,0.00,,RA,0.00,VWS V14.01,2013-02-26 11:58:00,
2013-02-26 06:59:00,35.7,24.7,29.85,East,80,10.0,19.0,64,0.00,,RA,0.00,VWS V14.01,2013-02-26 11:59:00,
2013-02-26 07:00:00,35.7,24.7,29.85,NE,43,9.0,17.0,64,0.00,,OVC150,0.00,VWS V14.01,2013-02-26 12:00:00,
2013-02-26 07:01:00,35.7,24.7,29.85,ENE,61,7.0,14.0,64,0.00,,RA,0.00,VWS V14.01,2013-02-26 12:01:00,
2013-02-26 07:02:00,35.8,24.8,29.84,ESE,108,10.0,15.0,64,0.00,,RA,0.00,VWS V14.01,2013-02-26 12:02:00,
2013-02-26 07:03:00,35.8,24.8,29.84,East,82,11.0,15.0,64,0.00,,RA,0.00,VWS V14.01,2013-02-26 12:03:00,
2013-02-26 07:04:00,35.8,24.8,29.84,East,82,15.0,17.0,64,0.00,,RA,0.00,VWS V14.01,2013-02-26 12:04:00,
2013-02-26 07:05:00,35.8,24.8,29.84,East,100,11.0,17.0,64,0.00,,OVC060,0.00,VWS V14.01,2013-02-26 12:05:00,
2013-02-26 07:06:00,35.8,24.8,29.84,East,80,12.0,16.0,64,0.00,,RA,0.00,VWS V14.01,2013-02-26 12:06:00,
2013-02-26 07:07:00,35.8,24.8,29.84,East,94,12.0,12.0,64,0.00,,RA,0.00,VWS V14.01,2013-02-26 12:07:00,
2013-02-26 07:08:00,35.8,24.8,29.84,ESE,119,7.0,16.0,64,0.00,,RA,0.00,VWS V14.01,2013-02-26 12:08:00,
2013-02-26 07:09:00,35.9,24.9,29.84,ESE,104,17.0,17.0,64,0.00,,RA,0.00,VWS V14.01,2013-02-26 12:09:00,
2013-02-26 07:10:00,35.9,24.9,29.84,NE,53,11.0,17.0,64,0.00,,OVC060,0.00,VWS V14.01,2013-02-26 12:10:00,
2013-02-26 07:11:00,35.9,24.5,29.84,ENE,75,11.0,19.0,63,0.00,,RA,0.00,VWS V14.01,2013-02-26 12:11:00,
2013-02-26 07:12:00,35.9,24.5,29.84,ENE,71,12.0,19.0,63,0.00,,RA,0.00,VWS V14.01,2013-02-26 12:12:00,
2013-02-26 07:13:00,35.9,24.5,29.84,ENE,58,11.0,17.0,63,0.00,,RA,0.00,VWS V14.01,2013-02-26 12:13:00,
2013-02-26 07:14:00,36.0,25.0,29.84,ENE,59,8.0,14.0,64,0.00,,RA,0.00,VWS V14.01,2013-02-26 12:14:00,
2013-02-26 07:15:00,35.9,24.9,29.84,ENE,71,8.0,14.0,64,0.00,,OVC060,0.00,VWS V14.01,2013-02-26 12:15:00,
2013-02-26 07:16:00,36.0,25.0,29.84,East,82,13.0,13.0,64,0.00,,RA,0.00,VWS V14.01,2013-02-26 12:16:00,
2013-02-26 07:17:00,36.0,25.0,29.84,ESE,103,14.0,14.0,64,0.00,,RA,0.00,VWS V14.01,2013-02-26 12:17:00,
2013-02-26 07:18:00,36.0,25.0,29.84,NE,56,11.0,16.0,64,0.00,,RA,0.00,VWS V14.01,2013-02-26 12:18:00,
2013-02-26 07:19:00,36.0,25.0,29.83,ENE,68,11.0,18.0,64,0.00,,RA,0.00,VWS V14.01,2013-02-26 12:19:00,
2013-02-26 07:20:00,36.0,24.6,29.84,ENE,66,15.0,20.0,63,0.00,,OVC060,0.00,VWS V14.01,2013-02-26 12:20:00,
2013-02-26 07:21:00,36.0,24.6,29.84,ESE,104,12.0,20.0,63,0.00,,RA,0.00,VWS V14.01,2013-02-26 12:21:00,
2013-02-26 07:22:00,36.1,24.7,29.83,East,84,9.0,18.0,63,0.00,,RA,0.00,VWS V14.01,2013-02-26 12:22:00,
2013-02-26 07:23:00,36.1,25.1,29.83,NE,54,12.0,14.0,64,0.00,,RA,0.00,VWS V14.01,2013-02-26 12:23:00,
2013-02-26 07:24:00,36.1,25.1,29.83,ENE,77,18.0,18.0,64,0.00,,RA,0.00,VWS V14.01,2013-02-26 12:24:00,
2013-02-26 07:25:00,36.1,25.1,29.83,East,94,16.0,18.0,64,0.00,,OVC060,0.00,VWS V14.01,2013-02-26 12:25:00,
2013-02-26 07:26:00,36.1,24.7,29.83,East,80,15.0,16.0,63,0.00,,RA,0.00,VWS V14.01,2013-02-26 12:26:00,
2013-02-26 07:27:00,36.1,24.7,29.83,East,94,18.0,18.0,63,0.00,,RA,0.00,VWS V14.01,2013-02-26 12:27:00,
2013-02-26 07:28:00,36.1,24.7,29.83,East,83,19.0,19.0,63,0.00,,RA,0.00,VWS V14.01,2013-02-26 12:28:00,
2013-02-26 07:29:00,36.1,24.7,29.83,East,95,13.0,19.0,63,0.00,,RA,0.00,VWS V14.01,2013-02-26 12:29:00,
2013-02-26 07:30:00,36.2,24.8,29.83,ENE,63,12.0,15.0,63,0.00,,OVC060,0.00,VWS V14.01,2013-02-26 12:30:00,
2013-02-26 07:31:00,36.2,24.8,29.84,ENE,77,14.0,19.0,63,0.00,,RA,0.00,VWS V14.01,2013-02-26 12:31:00,
2013-02-26 07:32:00,36.2,24.8,29.83,SE,127,9.0,19.0,63,0.00,,RA,0.00,VWS V14.01,2013-02-26 12:32:00,
2013-02-26 07:33:00,36.2,24.8,29.83,East,92,8.0,18.0,63,0.00,,RA,0.00,VWS V14.01,2013-02-26 12:33:00,
2013-02-26 07:34:00,36.2,24.8,29.83,East,89,11.0,16.0,63,0.00,,RA,0.00,VWS V14.01,2013-02-26 12:34:00,
2013-02-26 07:35:00,36.3,24.9,29.83,East,93,17.0,18.0,63,0.00,,OVC060,0.00,VWS V14.01,2013-02-26 12:35:00,
2013-02-26 07:36:00,36.2,25.2,29.84,East,91,15.0,18.0,64,0.00,,RA,0.00,VWS V14.01,2013-02-26 12:36:00,
2013-02-26 07:37:00,36.2,25.2,29.83,ESE,102,9.0,15.0,64,0.00,,RA,0.00,VWS V14.01,2013-02-26 12:37:00,
2013-02-26 07:38:00,36.2,25.2,29.83,East,89,16.0,19.0,64,0.00,,RA,0.00,VWS V14.01,2013-02-26 12:38:00,
2013-02-26 07:39:00,36.2,25.2,29.83,East,79,7.0,19.0,64,0.00,,RA,0.00,VWS V14.01,2013-02-26 12:39:00,
2013-02-26 07:40:00,36.2,25.2,29.84,ESE,110,7.0,13.0,64,0.00,,OVC060,0.00,VWS V14.01,2013-02-26 12:40:00,
2013-02-26 07:41:00,36.2,25.2,29.83,ENE,73,6.0,12.0,64,0.00,,RA,0.00,VWS V14.01,2013-02-26 12:41:00,
2013-02-26 07:42:00,36.2,25.2,29.83,East,90,9.0,11.0,64,0.00,,RA,0.00,VWS V14.01,2013-02-26 12:42:00,
2013-02-26 07:43:00,36.2,25.2,29.83,NNE,31,7.0,10.0,64,0.00,,RA,0.00,VWS V14.01,2013-02-26 12:43:00,
2013-02-26 07:44:00,36.2,25.6,29.83,ENE,73,9.0,11.0,65,0.00,,RA,0.00,VWS V14.01,2013-02-26 12:44:00,
2013-02-26 07:45:00,36.1,25.5,29.83,ENE,73,10.0,11.0,65,0.00,,OVC060,0.00,VWS V14.01,2013-02-26 12:45:00,
2013-02-26 07:46:00,36.1,25.9,29.83,East,82,11.0,15.0,66,0.00,,RA,0.00,VWS V14.01,2013-02-26 12:46:00,
2013-02-26 07:47:00,36.1,26.2,29.83,NE,53,12.0,14.0,67,0.00,,RA,0.00,VWS V14.01,2013-02-26 12:47:00,
2013-02-26 07:48:00,36.0,26.5,29.83,East,87,8.0,14.0,68,0.00,,RA,0.00,VWS V14.01,2013-02-26 12:48:00,
2013-02-26 07:49:00,35.9,26.7,29.83,ESE,103,6.0,13.0,69,0.00,,OVC060,0.00,VWS V14.01,2013-02-26 12:49:00,
2013-02-26 07:50:00,35.9,26.7,29.83,ESE,103,7.0,13.0,69,0.00,,RA,0.00,VWS V14.01,2013-02-26 12:50:00,
2013-02-26 07:51:00,35.8,26.6,29.83,ESE,119,6.0,8.0,69,0.00,,RA,0.00,VWS V14.01,2013-02-26 12:51:00,
2013-02-26 07:52:00,35.8,26.6,29.83,East,79,6.0,11.0,69,0.00,,RA,0.00,VWS V14.01,2013-02-26 12:52:00,
2013-02-26 07:53:00,35.8,26.6,29.83,ESE,105,4.0,9.0,69,0.00,,RA,0.00,VWS V14.01,2013-02-26 12:53:00,
2013-02-26 07:54:00,35.8,26.6,29.83,ENE,68,8.0,14.0,69,0.00,,OVC060,0.00,VWS V14.01,2013-02-26 12:54:00,
2013-02-26 07:55:00,35.8,26.6,29.83,ENE,75,8.0,14.0,69,0.00,,RA,0.00,VWS V14.01,2013-02-26 12:55:00,
2013-02-26 07:56:00,35.9,26.7,29.83,ENE,66,11.0,14.0,69,0.00,,RA,0.00,VWS V14.01,2013-02-26 12:56:00,
2013-02-26 07:57:00,35.9,26.7,29.83,SE,140,4.0,12.0,69,0.00,,RA,0.00,VWS V14.01,2013-02-26 12:57:00,
2013-02-26 07:58:00,35.9,27.1,29.83,SE,128,3.0,9.0,70,0.00,,RA,0.00,VWS V14.01,2013-02-26 12:58:00,
2013-02-26 07:59:00,35.9,26.7,29.83,ENE,57,4.0,9.0,69,0.00,,OVC060,0.00,VWS V14.01,2013-02-26 12:59:00,
2013-02-26 08:00:00,35.9,26.7,29.83,SE,130,3.0,9.0,69,0.00,,RA,0.00,VWS V14.01,2013-02-26 13:00:00,
2013-02-26 08:01:00,35.9,26.7,29.83,ENE,68,10.0,13.0,69,0.00,,RA,0.00,VWS V14.01,2013-02-26 13:01:00,
2013-02-26 08:02:00,35.9,26.7,29.83,ESE,109,10.0,13.0,69,0.00,,RA,0.00,VWS V14.01,2013-02-26 13:02:00,
2013-02-26 08:03:00,36.0,26.8,29.83,ENE,71,11.0,11.0,69,0.00,,RA,0.00,VWS V14.01,2013-02-26 13:03:00,
2013-02-26 08:04:00,36.1,27.3,29.83,East,96,10.0,16.0,70,0.00,,OVC060,0.00,VWS V14.01,2013-02-26 13:04:00,
2013-02-26 08:05:00,36.0,27.2,29.83,East,90,9.0,16.0,70,0.00,,RA,0.00,VWS V14.01,2013-02-26 13:05:00,
2013-02-26 08:06:00,36.0,27.2,29.83,NE,54,8.0,14.0,70,0.00,,RA,0.00,VWS V14.01,2013-02-26 13:06:00,
2013-02-26 08:07:00,36.0,27.5,29.83,SE,131,11.0,15.0,71,0.00,,RA,0.00,VWS V14.01,2013-02-26 13:07:00,
2013-02-26 08:08:00,36.0,27.5,29.83,NE,49,9.0,15.0,71,0.00,,RA,0.00,VWS V14.01,2013-02-26 13:08:00,
2013-02-26 08:09:00,35.9,28.1,29.83,ENE,59,7.0,15.0,73,0.00,,OVC060,0.00,VWS V14.01,2013-02-26 13:09:00,
2013-02-26 08:10:00,35.8,28.0,29.83,East,94,12.0,15.0,73,0.00,,RA,0.00,VWS V14.01,2013-02-26 13:10:00,
2013-02-26 08:11:00,35.8,28.0,29.83,East,86,10.0,14.0,73,0.00,,RA,0.00,VWS V14.01,2013-02-26 13:11:00,
2013-02-26 08:12:00,35.7,28.2,29.83,East,80,9.0,12.0,74,0.00,,RA,0.00,VWS V14.01,2013-02-26 13:12:00,
2013-02-26 08:13:00,35.7,28.2,29.83,East,92,12.0,19.0,74,0.00,,RA,0.00,VWS V14.01,2013-02-26 13:13:00,
2013-02-26 08:14:00,35.6,28.1,29.83,ENE,58,8.0,15.0,74,0.00,,OVC060,0.00,VWS V14.01,2013-02-26 13:14:00,
2013-02-26 08:15:00,35.6,28.1,29.83,ENE,58,8.0,15.0,74,0.00,,RA,0.00,VWS V14.01,2013-02-26 13:15:00,
2013-02-26 08:16:00,35.6,28.5,29.83,East,95,6.0,11.0,75,0.00,,RA,0.00,VWS V14.01,2013-02-26 13:16:00,
2013-02-26 08:17:00,35.5,28.7,29.83,ENE,71,10.0,14.0,76,0.01,,RA,0.01,VWS V14.01,2013-02-26 13:17:00,
2013-02-26 08:18:00,35.5,28.7,29.83,ESE,114,9.0,14.0,76,0.01,,RA,0.01,VWS V14.01,2013-02-26 13:18:00,
2013-02-26 08:19:00,35.4,28.9,29.83,ESE,113,10.0,12.0,77,0.01,,OVC060,0.01,VWS V14.01,2013-02-26 13:19:00,
2013-02-26 08:20:00,35.4,28.9,29.83,ENE,71,6.0,12.0,77,0.01,,RA,0.01,VWS V14.01,2013-02-26 13:20:00,
2013-02-26 08:21:00,35.3,28.8,29.83,East,97,4.0,12.0,77,0.01,,RA,0.01,VWS V14.01,2013-02-26 13:21:00,
2013-02-26 08:22:00,35.3,28.8,29.84,SE,146,6.0,14.0,77,0.01,,RA,0.01,VWS V14.01,2013-02-26 13:22:00,
2013-02-26 08:23:00,35.3,29.1,29.84,East,82,7.0,13.0,78,0.01,,RA,0.01,VWS V14.01,2013-02-26 13:23:00,
2013-02-26 08:24:00,35.2,29.0,29.84,East,82,8.0,11.0,78,0.01,,OVC060,0.01,VWS V14.01,2013-02-26 13:24:00,
2013-02-26 08:25:00,35.2,29.0,29.84,ENE,72,5.0,11.0,78,0.01,,RA,0.01,VWS V14.01,2013-02-26 13:25:00,
2013-02-26 08:26:00,35.2,29.0,29.84,East,84,6.0,11.0,78,0.01,,RA,0.01,VWS V14.01,2013-02-26 13:26:00,
2013-02-26 08:27:00,35.1,29.2,29.84,ESE,103,10.0,14.0,79,0.01,,RA,0.01,VWS V14.01,2013-02-26 13:27:00,
2013-02-26 08:28:00,35.1,29.2,29.84,ESE,119,8.0,14.0,79,0.01,,RA,0.01,VWS V14.01,2013-02-26 13:28:00,
2013-02-26 08:29:00,34.9,29.4,29.84,ENE,61,8.0,14.0,80,0.02,,OVC060,0.02,VWS V14.01,2013-02-26 13:29:00,
2013-02-26 08:30:00,34.9,29.4,29.84,East,79,6.0,14.0,80,0.02,,RA,0.02,VWS V14.01,2013-02-26 13:30:00,
2013-02-26 08:31:00,34.8,29.3,29.84,East,86,8.0,15.0,80,0.02,,RA,0.02,VWS V14.01,2013-02-26 13:31:00,
2013-02-26 08:32:00,34.7,29.2,29.84,East,89,10.0,15.0,80,0.02,,RA,0.02,VWS V14.01,2013-02-26 13:32:00,
2013-02-26 08:33:00,34.6,29.4,29.84,ENE,77,14.0,18.0,81,0.03,,RA,0.03,VWS V14.01,2013-02-26 13:33:00,
2013-02-26 08:34:00,34.5,29.6,29.84,ENE,57,9.0,14.0,82,0.03,,OVC060,0.03,VWS V14.01,2013-02-26 13:34:00,
2013-02-26 08:35:00,34.5,29.6,29.84,East,87,11.0,15.0,82,0.03,,RA,0.03,VWS V14.01,2013-02-26 13:35:00,
2013-02-26 08:36:00,34.4,29.5,29.84,East,80,8.0,15.0,82,0.03,,RA,0.03,VWS V14.01,2013-02-26 13:36:00,
2013-02-26 08:37:00,34.3,29.7,29.83,ESE,117,11.0,16.0,83,0.03,,RA,0.03,VWS V14.01,2013-02-26 13:37:00,
2013-02-26 08:38:00,34.3,29.7,29.83,East,84,10.0,16.0,83,0.04,,RA,0.04,VWS V14.01,2013-02-26 13:38:00,
2013-02-26 08:39:00,34.2,29.6,29.83,East,79,12.0,15.0,83,0.04,,OVC060,0.04,VWS V14.01,2013-02-26 13:39:00,
2013-02-26 08:40:00,34.2,29.6,29.83,ENE,65,14.0,15.0,83,0.04,,RA,0.04,VWS V14.01,2013-02-26 13:40:00,
2013-02-26 08:41:00,34.1,29.5,29.83,ENE,70,9.0,15.0,83,0.04,,RA,0.04,VWS V14.01,2013-02-26 13:41:00,
2013-02-26 08:42:00,34.1,29.5,29.83,ENE,71,11.0,14.0,83,0.04,,RA,0.04,VWS V14.01,2013-02-26 13:42:00,
2013-02-26 08:43:00,34.1,29.8,29.83,East,97,11.0,15.0,84,0.04,,RA,0.04,VWS V14.01,2013-02-26 13:43:00,
2013-02-26 08:44:00,34.0,29.7,29.82,East,89,12.0,19.0,84,0.04,,OVC060,0.04,VWS V14.01,2013-02-26 13:44:00,
2013-02-26 08:45:00,34.0,29.7,29.82,ENE,63,11.0,19.0,84,0.04,,RA,0.04,VWS V14.01,2013-02-26 13:45:00,
2013-02-26 08:46:00,34.0,29.7,29.82,East,97,13.0,17.0,84,0.05,,RA,0.05,VWS V14.01,2013-02-26 13:46:00,
2013-02-26 08:47:00,34.0,29.7,29.82,ENE,65,11.0,17.0,84,0.05,,RA,0.05,VWS V14.01,2013-02-26 13:47:00,
2013-02-26 08:48:00,34.0,29.7,29.82,East,89,12.0,14.0,84,0.05,,RA,0.05,VWS V14.01,2013-02-26 13:48:00,
2013-02-26 08:49:00,33.9,29.6,29.82,ENE,68,7.0,19.0,84,0.05,,OVC060,0.05,VWS V14.01,2013-02-26 13:49:00,
2013-02-26 08:50:00,33.9,29.6,29.82,ESE,104,13.0,18.0,84,0.05,,RA,0.05,VWS V14.01,2013-02-26 13:50:00,
2013-02-26 08:51:00,33.9,29.9,29.82,East,86,11.0,17.0,85,0.05,,RA,0.05,VWS V14.01,2013-02-26 13:51:00,
2013-02-26 08:52:00,33.9,29.9,29.81,East,97,9.0,20.0,85,0.05,,RA,0.05,VWS V14.01,2013-02-26 13:52:00,
2013-02-26 08:53:00,33.9,29.9,29.81,ENE,77,14.0,18.0,85,0.05,,RA,0.05,VWS V14.01,2013-02-26 13:53:00,
2013-02-26 08:54:00,33.9,29.9,29.81,ENE,68,8.0,18.0,85,0.05,,OVC060,0.05,VWS V14.01,2013-02-26 13:54:00,
2013-02-26 08:55:00,33.9,29.9,29.81,NE,56,10.0,18.0,85,0.05,,RA,0.05,VWS V14.01,2013-02-26 13:55:00,
2013-02-26 08:56:00,33.9,29.9,29.81,East,89,21.0,24.0,85,0.05,,RA,0.05,VWS V14.01,2013-02-26 13:56:00,
2013-02-26 08:57:00,33.9,29.9,29.81,NE,47,9.0,24.0,85,0.05,,RA,0.05,VWS V14.01,2013-02-26 13:57:00,
2013-02-26 08:58:00,33.9,29.9,29.81,ENE,67,17.0,18.0,85,0.05,,RA,0.05,VWS V14.01,2013-02-26 13:58:00,
2013-02-26 08:59:00,33.8,29.8,29.81,East,86,12.0,18.0,85,0.05,,OVC060,0.05,VWS V14.01,2013-02-26 13:59:00,
2013-02-26 09:00:00,33.8,29.8,29.81,East,84,12.0,16.0,85,0.05,,RA,0.05,VWS V14.01,2013-02-26 14:00:00,
2013-02-26 09:01:00,33.8,29.8,29.81,East,89,9.0,15.0,85,0.05,,RA,0.05,VWS V14.01,2013-02-26 14:01:00,
2013-02-26 09:02:00,33.8,30.1,29.81,ENE,69,10.0,17.0,86,0.06,,RA,0.06,VWS V14.01,2013-02-26 14:02:00,
2013-02-26 09:03:00,33.9,30.2,29.81,East,84,8.0,18.0,86,0.06,,RA,0.06,VWS V14.01,2013-02-26 14:03:00,
2013-02-26 09:04:00,33.8,30.1,29.81,East,94,9.0,18.0,86,0.06,,RA,0.06,VWS V14.01,2013-02-26 14:04:00,
2013-02-26 09:05:00,33.9,30.2,29.81,ESE,102,12.0,17.0,86,0.06,,RA,0.06,VWS V14.01,2013-02-26 14:05:00,
2013-02-26 09:06:00,33.9,30.2,29.81,ENE,76,10.0,17.0,86,0.06,,RA,0.06,VWS V14.01,2013-02-26 14:06:00,
2013-02-26 09:07:00,33.9,30.2,29.80,NE,54,8.0,16.0,86,0.06,,RA,0.06,VWS V14.01,2013-02-26 14:07:00,
2013-02-26 09:08:00,33.9,30.2,29.80,ENE,73,12.0,17.0,86,0.06,,RA,0.06,VWS V14.01,2013-02-26 14:08:00,
2013-02-26 09:09:00,33.9,30.2,29.80,East,87,12.0,22.0,86,0.06,,RA,0.06,VWS V14.01,2013-02-26 14:09:00,
2013-02-26 09:10:00,33.9,30.2,29.80,East,87,12.0,22.0,86,0.06,,RA,0.06,VWS V14.01,2013-02-26 14:10:00,
2013-02-26 09:11:00,33.9,30.2,29.80,East,99,18.0,18.0,86,0.06,,RA,0.06,VWS V14.01,2013-02-26 14:11:00,
2013-02-26 09:12:00,33.9,30.2,29.80,ENE,75,16.0,19.0,86,0.06,,RA,0.06,VWS V14.01,2013-02-26 14:12:00,
2013-02-26 09:13:00,33.9,30.2,29.80,East,79,17.0,18.0,86,0.06,,RA,0.06,VWS V14.01,2013-02-26 14:13:00,
2013-02-26 09:14:00,34.0,30.3,29.80,NE,37,11.0,15.0,86,0.06,,RA,0.06,VWS V14.01,2013-02-26 14:14:00,
2013-02-26 09:15:00,34.0,30.3,29.80,East,79,9.0,15.0,86,0.06,,RA,0.06,VWS V14.01,2013-02-26 14:15:00,
2013-02-26 09:16:00,34.0,30.3,29.80,ENE,63,11.0,15.0,86,0.06,,RA,0.06,VWS V14.01,2013-02-26 14:16:00,
2013-02-26 09:17:00,34.0,30.3,29.79,ENE,66,12.0,21.0,86,0.06,,RA,0.06,VWS V14.01,2013-02-26 14:17:00,
2013-02-26 09:18:00,34.1,30.4,29.79,ESE,103,16.0,18.0,86,0.05,,RA,0.06,VWS V14.01,2013-02-26 14:18:00,
2013-02-26 09:19:00,34.1,30.4,29.79,ESE,116,8.0,19.0,86,0.05,,RA,0.06,VWS V14.01,2013-02-26 14:19:00,
2013-02-26 09:20:00,34.1,30.4,29.79,East,79,10.0,19.0,86,0.05,,RA,0.06,VWS V14.01,2013-02-26 14:20:00,
2013-02-26 09:21:00,34.1,30.4,29.79,East,92,13.0,21.0,86,0.05,,RA,0.06,VWS V14.01,2013-02-26 14:21:00,
2013-02-26 09:22:00,34.1,30.4,29.79,East,86,6.0,21.0,86,0.05,,RA,0.06,VWS V14.01,2013-02-26 14:22:00,
2013-02-26 09:23:00,34.2,30.5,29.79,NE,39,12.0,17.0,86,0.05,,RA,0.06,VWS V14.01,2013-02-26 14:23:00,
2013-02-26 09:24:00,34.3,30.6,29.79,ENE,63,7.0,13.0,86,0.05,,RA,0.06,VWS V14.01,2013-02-26 14:24:00,
2013-02-26 09:25:00,34.3,30.6,29.79,East,89,13.0,13.0,86,0.05,,RA,0.06,VWS V14.01,2013-02-26 14:25:00,
2013-02-26 09:26:00,34.3,30.6,29.79,East,94,10.0,13.0,86,0.05,,RA,0.06,VWS V14.01,2013-02-26 14:26:00,
2013-02-26 09:27:00,34.3,30.6,29.78,East,92,10.0,14.0,86,0.05,,RA,0.06,VWS V14.01,2013-02-26 14:27:00,
2013-02-26 09:28:00,34.4,30.6,29.79,East,84,13.0,14.0,86,0.05,,RA,0.06,VWS V14.01,2013-02-26 14:28:00,
2013-02-26 09:29:00,34.4,30.6,29.78,ENE,70,10.0,11.0,86,0.04,,RA,0.06,VWS V14.01,2013-02-26 14:29:00,
2013-02-26 09:30:00,34.4,30.6,29.78,East,96,13.0,13.0,86,0.04,,RA,0.06,VWS V14.01,2013-02-26 14:30:00,
2013-02-26 09:31:00,34.5,30.8,29.78,ENE,68,12.0,18.0,86,0.04,,RA,0.06,VWS V14.01,2013-02-26 14:31:00,
2013-02-26 09:32:00,34.5,30.8,29.78,East,90,11.0,17.0,86,0.04,,RA,0.06,VWS V14.01,2013-02-26 14:32:00,
2013-02-26 09:33:00,34.6,30.9,29.78,ENE,68,11.0,20.0,86,0.04,,RA,0.06,VWS V14.01,2013-02-26 14:33:00,
2013-02-26 09:34:00,34.6,30.9,29.78,East,90,13.0,18.0,86,0.03,,RA,0.06,VWS V14.01,2013-02-26 14:34:00,
2013-02-26 09:35:00,34.7,31.0,29.78,East,90,12.0,16.0,86,0.03,,RA,0.06,VWS V14.01,2013-02-26 14:35:00,
2013-02-26 09:36:00,34.7,31.0,29.78,ENE,68,10.0,16.0,86,0.03,,RA,0.06,VWS V14.01,2013-02-26 14:36:00,
2013-02-26 09:37:00,34.8,31.0,29.78,ENE,68,12.0,18.0,86,0.03,,RA,0.06,VWS V14.01,2013-02-26 14:37:00,
2013-02-26 09:38:00,34.8,31.0,29.78,ENE,68,10.0,17.0,86,0.03,,RA,0.06,VWS V14.01,2013-02-26 14:38:00,
2013-02-26 09:39:00,34.8,31.0,29.78,East,90,11.0,17.0,86,0.02,,RA,0.06,VWS V14.01,2013-02-26 14:39:00,
2013-02-26 09:40:00,34.9,31.1,29.78,East,90,9.0,11.0,86,0.02,,RA,0.06,VWS V14.01,2013-02-26 14:40:00,
2013-02-26 09:41:00,34.9,31.1,29.78,East,90,14.0,19.0,86,0.02,,RA,0.06,VWS V14.01,2013-02-26 14:41:00,
2013-02-26 09:42:00,34.9,31.1,29.78,ENE,68,9.0,15.0,86,0.02,,RA,0.06,VWS V14.01,2013-02-26 14:42:00,
2013-02-26 09:43:00,35.0,31.2,29.78,East,90,11.0,17.0,86,0.02,,RA,0.06,VWS V14.01,2013-02-26 14:43:00,
2013-02-26 09:44:00,35.1,31.3,29.78,East,90,9.0,13.0,86,0.02,,RA,0.06,VWS V14.01,2013-02-26 14:44:00,
2013-02-26 09:45:00,35.1,31.3,29.77,ENE,68,9.0,15.0,86,0.02,,RA,0.06,VWS V14.01,2013-02-26 14:45:00,
2013-02-26 09:46:00,35.1,31.3,29.77,ENE,68,7.0,12.0,86,0.02,,RA,0.06,VWS V14.01,2013-02-26 14:46:00,
2013-02-26 09:47:00,35.2,31.4,29.77,ENE,68,12.0,15.0,86,0.01,,RA,0.06,VWS V14.01,2013-02-26 14:47:00,
2013-02-26 09:48:00,35.2,31.4,29.77,East,90,9.0,13.0,86,0.01,,RA,0.06,VWS V14.01,2013-02-26 14:48:00,
2013-02-26 09:49:00,35.3,31.5,29.77,ENE,68,12.0,15.0,86,0.01,,RA,0.06,VWS V14.01,2013-02-26 14:49:00,
2013-02-26 09:50:00,35.3,31.5,29.77,East,90,10.0,13.0,86,0.01,,RA,0.06,VWS V14.01,2013-02-26 14:50:00,
2013-02-26 09:51:00,35.4,31.6,29.77,East,90,10.0,16.0,86,0.01,,RA,0.06,VWS V14.01,2013-02-26 14:51:00,
2013-02-26 09:52:00,35.4,31.6,29.77,ENE,68,10.0,14.0,86,0.01,,RA,0.06,VWS V14.01,2013-02-26 14:52:00,
2013-02-26 09:53:00,35.5,31.7,29.77,East,90,10.0,13.0,86,0.01,,RA,0.06,VWS V14.01,2013-02-26 14:53:00,
2013-02-26 09:54:00,35.5,31.7,29.77,East,90,6.0,11.0,86,0.01,,RA,0.06,VWS V14.01,2013-02-26 14:54:00,
2013-02-26 09:55:00,35.6,31.8,29.77,ENE,68,7.0,12.0,86,0.01,,RA,0.06,VWS V14.01,2013-02-26 14:55:00,
2013-02-26 09:56:00,35.6,31.8,29.77,East,90,9.0,14.0,86,0.01,,RA,0.06,VWS V14.01,2013-02-26 14:56:00,
2013-02-26 09:57:00,35.7,31.9,29.77,ENE,68,9.0,12.0,86,0.01,,RA,0.06,VWS V14.01,2013-02-26 14:57:00,
2013-02-26 09:58:00,35.7,31.9,29.77,East,90,7.0,14.0,86,0.01,,RA,0.06,VWS V14.01,2013-02-26 14:58:00,
2013-02-26 09:59:00,35.7,31.9,29.77,East,90,13.0,17.0,86,0.01,,RA,0.06,VWS V14.01,2013-02-26 14:59:00,
2013-02-26 10:00:00,35.7,31.6,29.77,East,90,10.0,14.0,85,0.01,,RA,0.06,VWS V14.01,2013-02-26 15:00:00,
2013-02-26 10:01:00,35.8,31.7,29.77,ENE,68,8.0,11.0,85,0.01,,RA,0.06,VWS V14.01,2013-02-26 15:01:00,
2013-02-26 10:02:00,35.8,32.0,29.77,ENE,68,10.0,15.0,86,0.01,,RA,0.06,VWS V14.01,2013-02-26 15:02:00,
2013-02-26 10:03:00,35.8,31.7,29.77,East,90,10.0,12.0,85,0.00,,RA,0.06,VWS V14.01,2013-02-26 15:03:00,
2013-02-26 10:04:00,35.9,31.8,29.77,ENE,68,8.0,11.0,85,0.00,,RA,0.06,VWS V14.01,2013-02-26 15:04:00,
2013-02-26 10:05:00,35.9,31.8,29.77,East,90,5.0,8.0,85,0.00,,RA,0.06,VWS V14.01,2013-02-26 15:05:00,
2013-02-26 10:06:00,35.9,32.1,29.77,ENE,68,8.0,10.0,86,0.00,,RA,0.06,VWS V14.01,2013-02-26 15:06:00,
2013-02-26 10:07:00,35.9,32.1,29.77,ENE,68,8.0,11.0,86,0.00,,RA,0.06,VWS V14.01,2013-02-26 15:07:00,
2013-02-26 10:08:00,35.9,32.1,29.77,East,90,7.0,10.0,86,0.00,,RA,0.06,VWS V14.01,2013-02-26 15:08:00,
2013-02-26 10:09:00,36.0,32.2,29.76,East,90,7.0,10.0,86,0.00,,RA,0.06,VWS V14.01,2013-02-26 15:09:00,
2013-02-26 10:10:00,36.0,32.2,29.76,ENE,68,8.0,11.0,86,0.00,,RA,0.06,VWS V14.01,2013-02-26 15:10:00,
2013-02-26 10:11:00,36.0,32.2,29.76,East,90,8.0,11.0,86,0.00,,RA,0.06,VWS V14.01,2013-02-26 15:11:00,
2013-02-26 10:12:00,36.0,32.2,29.76,ENE,68,5.0,7.0,86,0.00,,RA,0.06,VWS V14.01,2013-02-26 15:12:00,
2013-02-26 10:13:00,36.1,32.3,29.76,ENE,68,7.0,10.0,86,0.00,,RA,0.06,VWS V14.01,2013-02-26 15:13:00,
2013-02-26 10:23:00,36.2,32.4,29.75,ENE,68,7.0,9.0,86,0.00,,RA,0.06,VWS V14.01,2013-02-26 15:23:00,
2013-02-26 10:28:00,36.2,32.1,29.75,ESE,110,13.0,15.0,85,0.00,,RA,0.06,VWS V14.01,2013-02-26 15:28:00,
2013-02-26 10:33:00,36.1,32.0,29.74,East,79,13.0,16.0,85,0.00,,OVC050,0.06,VWS V14.01,2013-02-26 15:33:00,
2013-02-26 10:38:00,36.1,32.0,29.74,East,90,16.0,18.0,85,0.00,,OVC050,0.06,VWS V14.01,2013-02-26 15:38:00,
2013-02-26 10:42:00,36.1,32.3,29.73,East,83,11.0,18.0,86,0.00,,OVC050,0.06,VWS V14.01,2013-02-26 15:42:00,
2013-02-26 10:47:00,36.2,32.1,29.73,ENE,78,16.0,24.0,85,0.00,,OVC050,0.06,VWS V14.01,2013-02-26 15:47:00,
2013-02-26 10:52:00,36.5,32.4,29.72,East,97,7.0,17.0,85,0.00,,OVC050,0.06,VWS V14.01,2013-02-26 15:52:00,
2013-02-26 10:57:00,36.7,32.6,29.72,East,98,13.0,23.0,85,0.00,,OVC050,0.06,VWS V14.01,2013-02-26 15:57:00,
2013-02-26 11:02:00,36.8,32.7,29.72,ENE,71,10.0,27.0,85,0.00,,-RA,0.06,VWS V14.01,2013-02-26 16:02:00,
2013-02-26 11:07:00,36.8,32.7,29.72,East,90,14.0,26.0,85,0.00,,-RA,0.06,VWS V14.01,2013-02-26 16:07:00,
2013-02-26 11:12:00,36.7,32.9,29.72,ENE,68,25.0,25.0,86,0.00,,-RA,0.06,VWS V14.01,2013-02-26 16:12:00,
2013-02-26 11:17:00,36.5,33.0,29.71,East,88,15.0,20.0,87,0.01,,-RA,0.07,VWS V14.01,2013-02-26 16:17:00,
2013-02-26 11:22:00,36.4,33.2,29.71,East,80,12.0,18.0,88,0.02,,-RA,0.08,VWS V14.01,2013-02-26 16:22:00,
2013-02-26 11:27:00,36.3,33.4,29.70,East,84,11.0,18.0,89,0.02,,-RA,0.08,VWS V14.01,2013-02-26 16:27:00,
2013-02-26 11:32:00,36.3,33.4,29.70,ENE,72,11.0,20.0,89,0.02,,-RA,0.08,VWS V14.01,2013-02-26 16:32:00,
2013-02-26 11:37:00,36.4,33.5,29.68,East,82,12.0,17.0,89,0.03,,-RA,0.09,VWS V14.01,2013-02-26 16:37:00,
2013-02-26 11:42:00,36.5,33.8,29.68,SE,129,6.0,22.0,90,0.03,,-RA,0.09,VWS V14.01,2013-02-26 16:42:00,
2013-02-26 11:47:00,36.7,34.0,29.68,East,94,14.0,14.0,90,0.03,,-RA,0.09,VWS V14.01,2013-02-26 16:47:00,
2013-02-26 11:52:00,36.8,34.2,29.67,East,101,13.0,24.0,90,0.03,,-RA,0.09,VWS V14.01,2013-02-26 16:52:00,
2013-02-26 11:57:00,37.1,34.4,29.67,East,95,14.0,16.0,90,0.03,,-RA,0.09,VWS V14.01,2013-02-26 16:57:00,
2013-02-26 12:02:00,37.1,34.4,29.67,ENE,67,11.0,19.0,90,0.03,,RA,0.09,VWS V14.01,2013-02-26 17:02:00,
2013-02-26 12:07:00,37.1,34.4,29.68,ESE,103,9.0,19.0,90,0.04,,RA,0.10,VWS V14.01,2013-02-26 17:07:00,
2013-02-26 12:12:00,37.1,34.4,29.67,ENE,69,7.0,14.0,90,0.04,,RA,0.10,VWS V14.01,2013-02-26 17:12:00,
2013-02-26 12:17:00,37.4,34.7,29.67,East,79,12.0,17.0,90,0.03,,-RA,0.10,VWS V14.01,2013-02-26 17:17:00,
2013-02-26 12:22:00,37.8,35.1,29.67,ENE,78,17.0,20.0,90,0.03,,-RA,0.10,VWS V14.01,2013-02-26 17:22:00,
2013-02-26 12:27:00,38.0,35.3,29.67,East,85,18.0,19.0,90,0.02,,-RA,0.10,VWS V14.01,2013-02-26 17:27:00,
2013-02-26 12:32:00,37.9,35.0,29.67,East,84,10.0,15.0,89,0.02,,-RA,0.10,VWS V14.01,2013-02-26 17:32:00,
2013-02-26 12:37:00,37.7,34.8,29.66,East,79,14.0,18.0,89,0.01,,-RA,0.10,VWS V14.01,2013-02-26 17:37:00,
2013-02-26 12:42:00,37.6,34.9,29.65,ENE,75,7.0,16.0,90,0.01,,-RA,0.10,VWS V14.01,2013-02-26 17:42:00,
2013-02-26 12:47:00,37.6,35.2,29.65,East,79,12.0,17.0,91,0.01,,-RA,0.10,VWS V14.01,2013-02-26 17:47:00,
2013-02-26 12:52:00,37.7,35.3,29.66,ENE,77,7.0,13.0,91,0.02,,-RA,0.12,VWS V14.01,2013-02-26 17:52:00,
2013-02-26 12:57:00,37.7,35.6,29.65,East,90,18.0,18.0,92,0.04,,-RA,0.13,VWS V14.01,2013-02-26 17:57:00,
2013-02-26 13:02:00,37.9,35.8,29.65,ESE,103,9.0,17.0,92,0.05,,-RA,0.14,VWS V14.01,2013-02-26 18:02:00,
2013-02-26 13:07:00,37.9,36.1,29.64,East,83,10.0,15.0,93,0.04,,-RA,0.14,VWS V14.01,2013-02-26 18:07:00,
2013-02-26 13:12:00,38.0,36.2,29.64,East,87,10.0,16.0,93,0.04,,-RA,0.14,VWS V14.01,2013-02-26 18:12:00,
2013-02-26 13:17:00,38.2,36.4,29.65,East,84,11.0,14.0,93,0.04,,-RA,0.14,VWS V14.01,2013-02-26 18:17:00,
2013-02-26 13:22:00,38.4,36.6,29.65,East,96,6.0,10.0,93,0.05,,-RA,0.15,VWS V14.01,2013-02-26 18:22:00,
2013-02-26 13:27:00,38.5,36.7,29.65,ESE,113,4.0,7.0,93,0.07,,-RA,0.17,VWS V14.01,2013-02-26 18:27:00,
2013-02-26 13:32:00,38.5,36.7,29.65,East,86,5.0,8.0,93,0.10,,-RA,0.20,VWS V14.01,2013-02-26 18:32:00,
2013-02-26 13:37:00,38.5,36.7,29.64,East,82,4.0,10.0,93,0.14,,-RA,0.24,VWS V14.01,2013-02-26 18:37:00,
2013-02-26 13:42:00,38.6,37.0,29.63,NE,41,6.0,8.0,94,0.16,,-RA,0.26,VWS V14.01,2013-02-26 18:42:00,
2013-02-26 13:47:00,38.6,37.0,29.63,ENE,77,5.0,13.0,94,0.16,,-RA,0.26,VWS V14.01,2013-02-26 18:47:00,
2013-02-26 13:52:00,38.7,37.1,29.62,ENE,65,6.0,8.0,94,0.15,,-RA,0.26,VWS V14.01,2013-02-26 18:52:00,
2013-02-26 13:57:00,38.7,37.1,29.62,ENE,66,8.0,13.0,94,0.14,,-RA,0.27,VWS V14.01,2013-02-26 18:57:00,
2013-02-26 14:02:00,38.8,37.2,29.62,ESE,110,5.0,11.0,94,0.13,, +RA,0.27,VWS V14.01,2013-02-26 19:02:00,
2013-02-26 14:07:00,39.0,37.4,29.62,ENE,60,7.0,7.0,94,0.13,, +RA,0.27,VWS V14.01,2013-02-26 19:07:00,
2013-02-26 14:12:00,39.2,37.6,29.61,ESE,113,5.0,10.0,94,0.13,, +RA,0.27,VWS V14.01,2013-02-26 19:12:00,
2013-02-26 14:17:00,39.5,37.9,29.61,East,92,9.0,10.0,94,0.13,, +RA,0.27,VWS V14.01,2013-02-26 19:17:00,
2013-02-26 14:22:00,39.7,38.1,29.61,East,84,8.0,8.0,94,0.12,, +RA,0.27,VWS V14.01,2013-02-26 19:22:00,
2013-02-26 14:27:00,40.0,38.4,29.60,East,90,4.0,7.0,94,0.10,, +RA,0.27,VWS V14.01,2013-02-26 19:27:00,
2013-02-26 14:32:00,40.2,38.6,29.61,ESE,113,5.0,11.0,94,0.07,, +RA,0.27,VWS V14.01,2013-02-26 19:32:00,
2013-02-26 14:37:00,40.4,38.8,29.61,East,84,5.0,9.0,94,0.04,, +RA,0.27,VWS V14.01,2013-02-26 19:37:00,
2013-02-26 14:42:00,40.5,38.9,29.61,ENE,75,6.0,11.0,94,0.01,, +RA,0.27,VWS V14.01,2013-02-26 19:42:00,
2013-02-26 14:47:00,40.7,39.1,29.61,ESE,103,7.0,8.0,94,0.01,, +RA,0.27,VWS V14.01,2013-02-26 19:47:00,
2013-02-26 14:52:00,40.9,39.0,29.60,East,81,12.0,15.0,93,0.01,, +RA,0.27,VWS V14.01,2013-02-26 19:52:00,
2013-02-26 14:57:00,41.2,39.3,29.60,ENE,69,9.0,13.0,93,0.00,, +RA,0.27,VWS V14.01,2013-02-26 19:57:00,
2013-02-26 15:02:00,41.4,39.2,29.59,ENE,65,13.0,14.0,92,0.01,,,0.28,VWS V14.01,2013-02-26 20:02:00,
2013-02-26 15:07:00,41.4,39.2,29.58,ENE,76,10.0,18.0,92,0.01,,,0.28,VWS V14.01,2013-02-26 20:07:00,
2013-02-26 15:12:00,41.4,39.2,29.58,East,101,13.0,18.0,92,0.01,,,0.28,VWS V14.01,2013-02-26 20:12:00,
2013-02-26 15:17:00,41.4,39.2,29.57,East,84,9.0,13.0,92,0.01,,OVC023,0.28,VWS V14.01,2013-02-26 20:17:00,
2013-02-26 15:22:00,41.5,39.3,29.56,NNE,32,10.0,15.0,92,0.01,,OVC023,0.28,VWS V14.01,2013-02-26 20:22:00,
2013-02-26 15:27:00,41.5,39.3,29.56,ENE,75,19.0,19.0,92,0.01,,OVC023,0.28,VWS V14.01,2013-02-26 20:27:00,
2013-02-26 15:32:00,41.5,39.3,29.56,East,96,11.0,16.0,92,0.01,,-RA,0.28,VWS V14.01,2013-02-26 20:32:00,
2013-02-26 15:37:00,41.6,39.5,29.56,ESE,109,12.0,12.0,92,0.01,,-RA,0.28,VWS V14.01,2013-02-26 20:37:00,
2013-02-26 15:42:00,41.6,39.5,29.56,ENE,68,10.0,14.0,92,0.01,,-RA,0.28,VWS V14.01,2013-02-26 20:42:00,
2013-02-26 15:47:00,41.7,39.5,29.56,ENE,75,12.0,17.0,92,0.01,,-RA,0.28,VWS V14.01,2013-02-26 20:47:00,
2013-02-26 15:52:00,41.8,39.7,29.55,ENE,60,17.0,17.0,92,0.01,,-RA,0.28,VWS V14.01,2013-02-26 20:52:00,
2013-02-26 15:57:00,41.9,39.8,29.56,East,86,5.0,11.0,92,0.01,,-RA,0.28,VWS V14.01,2013-02-26 20:57:00,
2013-02-26 16:02:00,41.9,39.8,29.56,SE,127,9.0,14.0,92,0.00,,-RA,0.28,VWS V14.01,2013-02-26 21:02:00,
2013-02-26 16:07:00,41.9,39.8,29.56,East,85,10.0,16.0,92,0.00,,-RA,0.28,VWS V14.01,2013-02-26 21:07:00,
2013-02-26 16:12:00,41.9,39.8,29.55,ENE,67,7.0,9.0,92,0.00,,-RA,0.28,VWS V14.01,2013-02-26 21:12:00,
2013-02-26 16:17:00,41.9,39.8,29.55,ENE,77,11.0,15.0,92,0.01,,OVC070,0.29,VWS V14.01,2013-02-26 21:17:00,
2013-02-26 16:22:00,41.8,39.7,29.56,SSW,207,6.0,11.0,92,0.01,,OVC070,0.29,VWS V14.01,2013-02-26 21:22:00,
2013-02-26 16:27:00,41.8,39.7,29.56,East,87,11.0,12.0,92,0.01,,OVC070,0.29,VWS V14.01,2013-02-26 21:27:00,
2013-02-26 16:32:00,41.9,39.8,29.56,ESE,111,8.0,13.0,92,0.02,,OVC070,0.30,VWS V14.01,2013-02-26 21:32:00,
2013-02-26 16:37:00,41.9,39.8,29.55,East,89,12.0,16.0,92,0.02,,OVC070,0.30,VWS V14.01,2013-02-26 21:37:00,
2013-02-26 16:42:00,42.2,40.0,29.55,ENE,65,12.0,16.0,92,0.02,,OVC070,0.30,VWS V14.01,2013-02-26 21:42:00,
2013-02-26 16:47:00,42.2,40.0,29.55,East,90,11.0,14.0,92,0.02,,OVC070,0.30,VWS V14.01,2013-02-26 21:47:00,
2013-02-26 16:52:00,42.2,39.8,29.55,East,101,15.0,17.0,91,0.02,,OVC070,0.30,VWS V14.01,2013-02-26 21:52:00,
2013-02-26 16:57:00,42.0,39.6,29.55,ESE,102,17.0,17.0,91,0.02,,OVC070,0.30,VWS V14.01,2013-02-26 21:57:00,
2013-02-26 17:02:00,41.9,39.8,29.55,East,95,16.0,16.0,92,0.02,,RA,0.30,VWS V14.01,2013-02-26 22:02:00,
2013-02-26 17:07:00,41.7,39.5,29.54,ENE,65,10.0,15.0,92,0.02,,RA,0.30,VWS V14.01,2013-02-26 22:07:00,
2013-02-26 17:12:00,41.6,39.7,29.54,ESE,105,9.0,18.0,93,0.02,,RA,0.30,VWS V14.01,2013-02-26 22:12:00,
2013-02-26 17:17:00,41.7,39.5,29.54,East,96,11.0,20.0,92,0.02,,RA,0.31,VWS V14.01,2013-02-26 22:17:00,
2013-02-26 17:22:00,41.6,39.5,29.54,East,79,7.0,19.0,92,0.02,,RA,0.31,VWS V14.01,2013-02-26 22:22:00,
2013-02-26 17:27:00,41.5,39.6,29.53,ENE,71,8.0,17.0,93,0.02,,RA,0.31,VWS V14.01,2013-02-26 22:27:00,
2013-02-26 17:32:00,41.5,39.6,29.53,ESE,109,10.0,15.0,93,0.02,,RA,0.31,VWS V14.01,2013-02-26 22:32:00,
2013-02-26 17:37:00,41.3,39.4,29.53,ENE,77,8.0,17.0,93,0.01,,RA,0.31,VWS V14.01,2013-02-26 22:37:00,
2013-02-26 17:42:00,41.2,39.3,29.53,ESE,115,10.0,17.0,93,0.01,,RA,0.31,VWS V14.01,2013-02-26 22:42:00,
2013-02-26 17:47:00,41.1,39.2,29.53,East,82,12.0,17.0,93,0.02,,RA,0.32,VWS V14.01,2013-02-26 22:47:00,
2013-02-26 17:52:00,41.0,39.1,29.53,East,86,9.0,14.0,93,0.02,,RA,0.32,VWS V14.01,2013-02-26 22:52:00,
2013-02-26 17:57:00,40.9,39.0,29.53,East,87,17.0,18.0,93,0.02,,RA,0.32,VWS V14.01,2013-02-26 22:57:00,
2013-02-26 18:02:00,40.8,38.9,29.54,East,79,9.0,15.0,93,0.02,,OVC045,0.32,VWS V14.01,2013-02-26 23:02:00,
2013-02-26 18:07:00,40.8,38.9,29.53,ESE,111,8.0,16.0,93,0.02,,OVC045,0.32,VWS V14.01,2013-02-26 23:07:00,
2013-02-26 18:12:00,40.7,38.6,29.53,NE,53,12.0,16.0,92,0.02,,OVC045,0.32,VWS V14.01,2013-02-26 23:12:00,
2013-02-26 18:17:00,40.7,38.6,29.54,ENE,68,8.0,14.0,92,0.01,,OVC022,0.32,VWS V14.01,2013-02-26 23:17:00,
2013-02-26 18:22:00,40.6,38.7,29.53,ENE,77,11.0,18.0,93,0.02,,OVC022,0.33,VWS V14.01,2013-02-26 23:22:00,
2013-02-26 18:27:00,40.5,38.6,29.53,East,100,11.0,15.0,93,0.02,,OVC022,0.33,VWS V14.01,2013-02-26 23:27:00,
2013-02-26 18:32:00,40.4,38.5,29.53,East,80,13.0,14.0,93,0.03,,OVC022,0.34,VWS V14.01,2013-02-26 23:32:00,
2013-02-26 18:37:00,40.3,38.4,29.53,SE,130,7.0,14.0,93,0.03,,OVC022,0.34,VWS V14.01,2013-02-26 23:37:00,
2013-02-26 18:42:00,40.3,38.4,29.54,East,84,11.0,14.0,93,0.04,,OVC022,0.35,VWS V14.01,2013-02-26 23:42:00,
2013-02-26 18:47:00,40.2,38.3,29.54,East,80,10.0,11.0,93,0.04,,OVC022,0.36,VWS V14.01,2013-02-26 23:47:00,
2013-02-26 18:52:00,40.2,38.3,29.55,East,86,12.0,19.0,93,0.05,,OVC022,0.37,VWS V14.01,2013-02-26 23:52:00,
2013-02-26 18:57:00,40.1,38.2,29.54,East,91,8.0,15.0,93,0.07,,OVC022,0.39,VWS V14.01,2013-02-26 23:57:00,
2013-02-26 19:02:00,40.1,38.5,29.54,SE,128,11.0,17.0,94,0.08,,-RA,0.40,VWS V14.01,2013-02-27 00:02:00,
2013-02-26 19:07:00,40.0,38.4,29.54,ENE,68,10.0,16.0,94,0.09,,-RA,0.41,VWS V14.01,2013-02-27 00:07:00,
2013-02-26 19:12:00,40.0,38.4,29.54,East,82,11.0,15.0,94,0.09,,-RA,0.41,VWS V14.01,2013-02-27 00:12:00,
2013-02-26 19:17:00,40.0,38.4,29.55,ESE,108,7.0,14.0,94,0.10,,RA,0.42,VWS V14.01,2013-02-27 00:17:00,
2013-02-26 19:22:00,40.0,38.4,29.55,East,89,15.0,16.0,94,0.09,,RA,0.42,VWS V14.01,2013-02-27 00:22:00,
2013-02-26 19:27:00,40.1,38.5,29.55,ESE,106,12.0,18.0,94,0.09,,RA,0.42,VWS V14.01,2013-02-27 00:27:00,
2013-02-26 19:32:00,40.2,38.6,29.55,ESE,104,16.0,17.0,94,0.08,,-RA,0.42,VWS V14.01,2013-02-27 00:32:00,
2013-02-26 19:37:00,40.3,38.7,29.55,ESE,114,14.0,17.0,94,0.09,,-RA,0.43,VWS V14.01,2013-02-27 00:37:00,
2013-02-26 19:42:00,40.3,38.7,29.55,ENE,75,7.0,14.0,94,0.08,,-RA,0.43,VWS V14.01,2013-02-27 00:42:00,
2013-02-26 19:47:00,40.3,38.7,29.55,East,79,10.0,16.0,94,0.07,,-RA,0.43,VWS V14.01,2013-02-27 00:47:00,
2013-02-26 19:52:00,40.5,38.9,29.55,ESE,104,12.0,16.0,94,0.06,,-RA,0.43,VWS V14.01,2013-02-27 00:52:00,
2013-02-26 19:57:00,40.6,39.0,29.55,ENE,74,10.0,13.0,94,0.04,,-RA,0.43,VWS V14.01,2013-02-27 00:57:00,
2013-02-26 20:02:00,40.6,39.0,29.55,East,86,8.0,12.0,94,0.03,,-RA,0.43,VWS V14.01,2013-02-27 01:02:00,
2013-02-26 20:07:00,40.6,39.0,29.55,ESE,111,7.0,11.0,94,0.02,,-RA,0.43,VWS V14.01,2013-02-27 01:07:00,
2013-02-26 20:12:00,40.6,39.0,29.55,ENE,75,10.0,11.0,94,0.02,,-RA,0.43,VWS V14.01,2013-02-27 01:12:00,
2013-02-26 20:17:00,40.7,39.1,29.55,ESE,113,9.0,12.0,94,0.01,,-RA,0.43,VWS V14.01,2013-02-27 01:17:00,
2013-02-26 20:22:00,40.6,39.0,29.54,ESE,113,11.0,12.0,94,0.01,,-RA,0.43,VWS V14.01,2013-02-27 01:22:00,
2013-02-26 20:27:00,40.6,39.0,29.55,East,82,7.0,14.0,94,0.01,,-RA,0.43,VWS V14.01,2013-02-27 01:27:00,
2013-02-26 20:32:00,40.6,39.0,29.55,East,91,12.0,14.0,94,0.01,,-RA,0.43,VWS V14.01,2013-02-27 01:32:00,
2013-02-26 20:37:00,40.6,39.0,29.55,East,97,6.0,13.0,94,0.00,,-RA,0.43,VWS V14.01,2013-02-27 01:37:00,
2013-02-26 20:42:00,40.6,39.0,29.56,South,173,2.0,4.0,94,0.01,,-RA,0.44,VWS V14.01,2013-02-27 01:42:00,
2013-02-26 20:47:00,40.6,39.0,29.56,South,190,2.0,3.0,94,0.02,,-RA,0.45,VWS V14.01,2013-02-27 01:47:00,
2013-02-26 20:52:00,40.6,39.3,29.56,ESE,121,1.0,3.0,95,0.02,,-RA,0.45,VWS V14.01,2013-02-27 01:52:00,
2013-02-26 20:57:00,40.7,39.4,29.55,NE,55,3.0,6.0,95,0.02,,-RA,0.45,VWS V14.01,2013-02-27 01:57:00,
2013-02-26 21:02:00,40.7,39.4,29.55,SSE,153,1.0,6.0,95,0.02,,-RA,0.45,VWS V14.01,2013-02-27 02:02:00,
2013-02-26 21:07:00,40.8,39.5,29.55,SW,232,3.0,4.0,95,0.02,,-RA,0.45,VWS V14.01,2013-02-27 02:07:00,
2013-02-26 21:12:00,41.1,40.0,29.55,SSW,201,0.0,2.0,96,0.02,,-RA,0.45,VWS V14.01,2013-02-27 02:12:00,
2013-02-26 21:17:00,41.1,39.8,29.55,West,264,1.0,2.0,95,0.02,,-RA,0.45,VWS V14.01,2013-02-27 02:17:00,
2013-02-26 21:22:00,41.1,39.8,29.55,ENE,69,4.0,4.0,95,0.02,,-RA,0.45,VWS V14.01,2013-02-27 02:22:00,
2013-02-26 21:27:00,41.2,39.9,29.55,East,92,1.0,1.0,95,0.02,,-RA,0.45,VWS V14.01,2013-02-27 02:27:00,
2013-02-26 21:32:00,41.2,39.9,29.55,ESE,103,1.0,2.0,95,0.02,,-RA,0.45,VWS V14.01,2013-02-27 02:32:00,
2013-02-26 21:37:00,41.3,40.0,29.56,ESE,102,2.0,2.0,95,0.02,,-RA,0.45,VWS V14.01,2013-02-27 02:37:00,
2013-02-26 21:42:00,41.3,40.2,29.56,SE,132,1.0,3.0,96,0.01,,-RA,0.45,VWS V14.01,2013-02-27 02:42:00,
2013-02-26 21:47:00,41.3,40.2,29.56,ESE,113,1.0,2.0,96,0.00,,OVC055,0.45,VWS V14.01,2013-02-27 02:47:00,
2013-02-26 21:52:00,41.4,40.3,29.56,ESE,111,1.0,2.0,96,0.00,,OVC055,0.45,VWS V14.01,2013-02-27 02:52:00,
2013-02-26 21:57:00,41.5,40.5,29.55,ESE,113,1.0,1.0,96,0.00,,OVC055,0.45,VWS V14.01,2013-02-27 02:57:00,
2013-02-26 22:02:00,41.7,40.7,29.55,SE,129,0.0,1.0,96,0.00,,OVC055,0.45,VWS V14.01,2013-02-27 03:02:00,
2013-02-26 22:07:00,41.8,40.8,29.55,SW,214,0.0,1.0,96,0.00,,OVC055,0.45,VWS V14.01,2013-02-27 03:07:00,
2013-02-26 22:12:00,42.0,40.9,29.55,WSW,242,1.0,3.0,96,0.00,,OVC055,0.45,VWS V14.01,2013-02-27 03:12:00,
2013-02-26 22:17:00,42.3,41.2,29.55,SW,224,3.0,4.0,96,0.00,,OVC055,0.45,VWS V14.01,2013-02-27 03:17:00,
2013-02-26 22:22:00,42.6,41.3,29.55,SW,224,4.0,4.0,95,0.00,,OVC055,0.45,VWS V14.01,2013-02-27 03:22:00,
2013-02-26 22:27:00,42.9,41.3,29.55,SSW,208,1.0,3.0,94,0.00,,OVC055,0.45,VWS V14.01,2013-02-27 03:27:00,
2013-02-26 22:32:00,43.0,41.4,29.55,WSW,245,2.0,4.0,94,0.00,,OVC055,0.45,VWS V14.01,2013-02-27 03:32:00,
2013-02-26 22:37:00,43.1,41.5,29.55,SW,223,5.0,7.0,94,0.00,,OVC055,0.45,VWS V14.01,2013-02-27 03:37:00,
2013-02-26 22:42:00,43.2,41.3,29.55,West,263,3.0,6.0,93,0.00,,OVC055,0.45,VWS V14.01,2013-02-27 03:42:00,
2013-02-26 22:47:00,43.3,41.4,29.55,SW,233,11.0,11.0,93,0.00,,OVC055,0.45,VWS V14.01,2013-02-27 03:47:00,
2013-02-26 22:52:00,43.4,41.5,29.55,SW,229,7.0,9.0,93,0.00,,OVC055,0.45,VWS V14.01,2013-02-27 03:52:00,
2013-02-26 22:57:00,43.5,41.3,29.55,WSW,248,10.0,11.0,92,0.00,,OVC055,0.45,VWS V14.01,2013-02-27 03:57:00,
2013-02-26 23:02:00,43.6,41.4,29.56,SW,225,9.0,9.0,92,0.00,,OVC026,0.45,VWS V14.01,2013-02-27 04:02:00,
2013-02-26 23:07:00,43.6,41.4,29.56,SW,219,6.0,12.0,92,0.00,,OVC026,0.45,VWS V14.01,2013-02-27 04:07:00,
2013-02-26 23:12:00,43.6,41.4,29.56,WSW,240,7.0,11.0,92,0.00,,OVC026,0.45,VWS V14.01,2013-02-27 04:12:00,
2013-02-26 23:17:00,43.6,41.4,29.56,SSW,203,4.0,10.0,92,0.00,,OVC026,0.45,VWS V14.01,2013-02-27 04:17:00,
2013-02-26 23:22:00,43.6,41.4,29.56,South,177,8.0,12.0,92,0.00,,OVC026,0.45,VWS V14.01,2013-02-27 04:22:00,
2013-02-26 23:27:00,43.7,41.2,29.56,WSW,240,9.0,10.0,91,0.00,,OVC026,0.45,VWS V14.01,2013-02-27 04:27:00,
2013-02-26 23:32:00,43.7,41.2,29.57,SW,219,6.0,12.0,91,0.00,,OVC026,0.45,VWS V14.01,2013-02-27 04:32:00,
2013-02-26 23:37:00,43.7,41.2,29.56,WSW,248,11.0,14.0,91,0.00,,OVC026,0.45,VWS V14.01,2013-02-27 04:37:00,
2013-02-26 23:42:00,43.7,41.2,29.56,WSW,238,9.0,10.0,91,0.00,,OVC026,0.45,VWS V14.01,2013-02-27 04:42:00,
2013-02-26 23:47:00,43.7,41.2,29.56,SW,224,6.0,12.0,91,0.00,,OVC026,0.45,VWS V14.01,2013-02-27 04:47:00,
2013-02-26 23:52:00,43.7,41.2,29.56,WSW,238,13.0,15.0,91,0.00,,OVC026,0.45,VWS V14.01,2013-02-27 04:52:00,
2013-02-26 23:57:00,43.7,41.0,29.56,SW,233,7.0,11.0,90,0.00,,OVC026,0.45,VWS V14.01,2013-02-27 04:57:00,